UAE69R OMDB-KJFK

Flight info

Callsign UAE69R
Flight time 14h 14m
Altitude 30000
Route KUTLI L519 ATUDO M318 GOLGU M550 RIBOT DCT MIGMA DCT SITUK/N0497F320 M321 KSA T503 OVANO L768 FIRAS R655 LEBOR UR655 BALMA L620 ALSUS DCT VESAR UB545 SEHIR/N0483F340 UB545 OKLAM UL619 OSVEL UQ23 OSDAN UQ26 TUDBU DCT ETUBA Q26 UPAMA DCT GIKUN DCT GUPRO DCT DIDIX DCT INVED DCT DEXIT DCT INBED DCT BOMBI DCT ADKUV DCT SOGRI DCT DENUT L610 KOPUL DCT ENHAQ DCT GAJIT DCT BAPHU DCT LESLU/M083F360 DCT RODEL DCT 51N020W 5030N03000W 4930N04000W 49N050W DCT JOOPY/N0483F360 N332A ALLEX DCT ENE PARCH4
Aircraft B77W/H-SDE1E2E3FGHIJ2J3J4J5M1RWXYZ/LB1D1

Departure

Time 2026-05-09 03:11
Airport Dubai International Airport (OMDB)

Arrival

Time 2026-05-09 17:25
Airport John F. Kennedy International Airport (KJFK)
Time Latitude Longitude Altitude Speed Heading
2026-05-09 01:47 25.24581 55.36622 30 ft 0 kts 312°
2026-05-09 02:55 25.24576 55.36628 31 ft 3 kts 312°
2026-05-09 02:55 25.24562 55.36645 29 ft 3 kts 312°
2026-05-09 02:55 25.24550 55.36660 31 ft 2 kts 312°
2026-05-09 02:55 25.24536 55.36674 31 ft 3 kts 339°
2026-05-09 02:56 25.24518 55.36678 31 ft 3 kts 12°
2026-05-09 02:56 25.24499 55.36670 31 ft 3 kts 33°
2026-05-09 02:56 25.24483 55.36657 31 ft 3 kts 49°
2026-05-09 02:56 25.24471 55.36640 31 ft 3 kts 51°
2026-05-09 02:57 25.24459 55.36624 31 ft 1 kts 51°
2026-05-09 03:00 25.24460 55.36624 28 ft 0 kts 51°
2026-05-09 03:00 25.24463 55.36629 29 ft 1 kts 51°
2026-05-09 03:00 25.24472 55.36641 29 ft 3 kts 50°
2026-05-09 03:00 25.24488 55.36660 28 ft 4 kts 45°
2026-05-09 03:01 25.24514 55.36683 31 ft 6 kts 34°
2026-05-09 03:01 25.24555 55.36711 29 ft 8 kts 31°
2026-05-09 03:01 25.24603 55.36744 29 ft 8 kts 31°
2026-05-09 03:01 25.24651 55.36776 30 ft 8 kts 31°
2026-05-09 03:02 25.24699 55.36808 29 ft 8 kts 31°
2026-05-09 03:02 25.24747 55.36841 30 ft 8 kts 31°
2026-05-09 03:02 25.24795 55.36873 26 ft 8 kts 37°
2026-05-09 03:02 25.24804 55.36931 26 ft 8 kts 107°
2026-05-09 03:03 25.24778 55.36986 26 ft 8 kts 121°
2026-05-09 03:03 25.24749 55.37039 27 ft 8 kts 121°
2026-05-09 03:03 25.24719 55.37092 27 ft 8 kts 121°
2026-05-09 03:03 25.24689 55.37145 27 ft 8 kts 122°
2026-05-09 03:04 25.24657 55.37203 26 ft 10 kts 122°
2026-05-09 03:04 25.24615 55.37278 31 ft 12 kts 122°
2026-05-09 03:04 25.24571 55.37355 29 ft 12 kts 122°
2026-05-09 03:04 25.24528 55.37431 27 ft 12 kts 122°
2026-05-09 03:05 25.24485 55.37508 29 ft 12 kts 122°
2026-05-09 03:05 25.24442 55.37584 29 ft 12 kts 122°
2026-05-09 03:05 25.24399 55.37660 31 ft 11 kts 122°
2026-05-09 03:05 25.24378 55.37720 30 ft 8 kts 82°
2026-05-09 03:06 25.24415 55.37765 26 ft 8 kts 36°
2026-05-09 03:06 25.24464 55.37804 27 ft 10 kts 35°
2026-05-09 03:06 25.24520 55.37847 28 ft 10 kts 34°
2026-05-09 03:06 25.24576 55.37889 28 ft 10 kts 34°
2026-05-09 03:07 25.24631 55.37931 27 ft 9 kts 33°
2026-05-09 03:07 25.24675 55.37961 27 ft 6 kts 32°
2026-05-09 03:07 25.24681 55.37966 27 ft 0 kts 32°
2026-05-09 03:08 25.24692 55.37973 28 ft 4 kts 32°
2026-05-09 03:08 25.24728 55.37998 29 ft 7 kts 32°
2026-05-09 03:08 25.24771 55.38027 30 ft 7 kts 32°
2026-05-09 03:08 25.24812 55.38014 30 ft 7 kts 301°
2026-05-09 03:09 25.24821 55.37997 30 ft 0 kts 301°
2026-05-09 03:09 25.24822 55.37995 30 ft 3 kts 301°
2026-05-09 03:10 25.24905 55.37846 30 ft 54 kts 301°
2026-05-09 03:10 25.25237 55.37250 32 ft 127 kts 301°
2026-05-09 03:10 25.25812 55.36209 30 ft 189 kts 301°
2026-05-09 03:10 25.26560 55.34861 275 ft 209 kts 298°
2026-05-09 03:11 25.27304 55.33499 854 ft 207 kts 300°
2026-05-09 03:11 25.28058 55.32151 1401 ft 208 kts 301°
2026-05-09 03:11 25.28819 55.30780 1875 ft 209 kts 300°
2026-05-09 03:11 25.29205 55.29239 2168 ft 216 kts 265°
2026-05-09 03:12 25.28709 55.27657 2537 ft 220 kts 249°
2026-05-09 03:12 25.28058 55.26112 2940 ft 223 kts 249°
2026-05-09 03:12 25.27418 55.24541 3384 ft 225 kts 249°
2026-05-09 03:12 25.26761 55.22955 3817 ft 228 kts 248°
2026-05-09 03:13 25.25396 55.19694 4497 ft 246 kts 247°
2026-05-09 03:13 25.24653 55.17933 4739 ft 259 kts 247°
2026-05-09 03:13 25.23865 55.16109 5139 ft 268 kts 244°
2026-05-09 03:14 25.22925 55.14258 5372 ft 285 kts 241°
2026-05-09 03:14 25.21887 55.12305 5552 ft 305 kts 241°
2026-05-09 03:14 25.20785 55.10218 5707 ft 324 kts 241°
2026-05-09 03:14 25.19673 55.07973 5952 ft 339 kts 246°
2026-05-09 03:15 25.18760 55.05542 6406 ft 346 kts 250°
2026-05-09 03:15 25.17892 55.03041 6935 ft 351 kts 249°
2026-05-09 03:15 25.16991 55.00534 7550 ft 353 kts 248°
2026-05-09 03:15 25.16064 54.98022 8184 ft 355 kts 248°
2026-05-09 03:16 25.14912 54.95625 8591 ft 356 kts 230°
2026-05-09 03:16 25.13015 54.93853 9088 ft 362 kts 210°
2026-05-09 03:16 25.10665 54.92833 9738 ft 366 kts 194°
2026-05-09 03:16 25.08125 54.92578 10333 ft 369 kts 180°
2026-05-09 03:17 25.05555 54.92659 10919 ft 371 kts 180°
2026-05-09 03:17 25.02966 54.92702 11496 ft 373 kts 180°
2026-05-09 03:17 25.00357 54.92792 12059 ft 376 kts 177°
2026-05-09 03:17 24.97740 54.92988 12662 ft 378 kts 176°
2026-05-09 03:18 24.95112 54.93200 13243 ft 381 kts 176°
2026-05-09 03:18 24.92456 54.93395 13796 ft 383 kts 176°
2026-05-09 03:18 24.89787 54.93577 14301 ft 386 kts 176°
2026-05-09 03:18 24.87100 54.93627 14687 ft 388 kts 186°
2026-05-09 03:19 24.84495 54.92787 15003 ft 397 kts 206°
2026-05-09 03:19 24.82094 54.91288 15412 ft 399 kts 208°
2026-05-09 03:19 24.79663 54.89792 15876 ft 402 kts 207°
2026-05-09 03:19 24.77194 54.88307 16381 ft 404 kts 207°
2026-05-09 03:20 24.74752 54.86849 16885 ft 407 kts 207°
2026-05-09 03:20 24.72258 54.85362 17357 ft 410 kts 207°
2026-05-09 03:20 24.69736 54.83861 17809 ft 413 kts 207°
2026-05-09 03:20 24.67209 54.82329 18243 ft 417 kts 208°
2026-05-09 03:21 24.64696 54.80728 18658 ft 419 kts 209°
2026-05-09 03:21 24.62180 54.79100 19109 ft 420 kts 209°
2026-05-09 03:21 24.59657 54.77471 19559 ft 421 kts 209°
2026-05-09 03:21 24.57122 54.75846 19979 ft 423 kts 209°
2026-05-09 03:22 24.54565 54.74215 20345 ft 426 kts 209°
2026-05-09 03:22 24.51993 54.72568 20716 ft 430 kts 210°
2026-05-09 03:22 24.49424 54.70897 21136 ft 431 kts 210°
2026-05-09 03:22 24.47712 54.69779 21436 ft 432 kts 210°
2026-05-09 03:23 24.45129 54.68096 21878 ft 433 kts 210°
2026-05-09 03:23 24.42525 54.66408 22295 ft 435 kts 210°
2026-05-09 03:23 24.39907 54.64746 22701 ft 436 kts 210°
2026-05-09 03:23 24.37269 54.63083 23090 ft 438 kts 210°
2026-05-09 03:24 24.34617 54.61409 23461 ft 440 kts 210°
2026-05-09 03:24 24.31957 54.59727 23792 ft 442 kts 210°
2026-05-09 03:24 24.29291 54.58038 24120 ft 443 kts 210°
2026-05-09 03:24 24.26700 54.56204 24425 ft 445 kts 218°
2026-05-09 03:25 24.24425 54.53883 24707 ft 448 kts 228°
2026-05-09 03:25 24.22506 54.51175 25005 ft 451 kts 234°
2026-05-09 03:25 24.20887 54.48223 25322 ft 453 kts 240°
2026-05-09 03:25 24.19384 54.45193 25642 ft 454 kts 240°
2026-05-09 03:26 24.17847 54.42156 25958 ft 456 kts 239°
2026-05-09 03:26 24.16297 54.39129 26267 ft 457 kts 239°
2026-05-09 03:26 24.14730 54.36084 26566 ft 459 kts 239°
2026-05-09 03:26 24.13178 54.33075 26853 ft 460 kts 239°
2026-05-09 03:27 24.11580 54.29978 27152 ft 462 kts 239°
2026-05-09 03:27 24.10020 54.26957 27440 ft 463 kts 239°
2026-05-09 03:27 24.08432 54.23881 27738 ft 465 kts 239°
2026-05-09 03:27 24.06840 54.20798 28028 ft 466 kts 239°
2026-05-09 03:28 24.05245 54.17713 28302 ft 467 kts 239°
2026-05-09 03:28 24.03643 54.14614 28557 ft 468 kts 239°
2026-05-09 03:28 24.02039 54.11512 28806 ft 470 kts 239°
2026-05-09 03:28 24.00427 54.08399 29044 ft 471 kts 239°
2026-05-09 03:29 23.98809 54.05282 29328 ft 471 kts 239°
2026-05-09 03:29 23.97180 54.02180 29709 ft 469 kts 239°
2026-05-09 03:29 23.95548 53.99090 29842 ft 472 kts 239°
2026-05-09 03:29 23.93905 53.95985 29901 ft 469 kts 239°
2026-05-09 03:30 23.90655 53.89840 29860 ft 465 kts 239°
2026-05-09 03:30 23.87422 53.83725 29881 ft 465 kts 239°
2026-05-09 03:31 23.84189 53.77611 29885 ft 465 kts 239°
2026-05-09 03:31 23.80947 53.71490 29883 ft 466 kts 239°
2026-05-09 03:32 23.77700 53.65368 29891 ft 467 kts 239°
2026-05-09 03:32 23.74441 53.59228 29888 ft 468 kts 239°
2026-05-09 03:33 23.71168 53.53070 29900 ft 469 kts 239°
2026-05-09 03:33 23.67891 53.46899 29897 ft 470 kts 239°
2026-05-09 03:34 23.64713 53.40900 29901 ft 470 kts 239°
2026-05-09 03:34 23.61440 53.34726 29902 ft 470 kts 239°
2026-05-09 03:35 23.58161 53.28552 29906 ft 470 kts 239°
2026-05-09 03:35 23.54887 53.22396 29898 ft 470 kts 239°
2026-05-09 03:36 23.51629 53.16278 29905 ft 469 kts 239°
2026-05-09 03:36 23.48353 53.10131 29908 ft 469 kts 239°
2026-05-09 03:37 23.45076 53.03991 29916 ft 469 kts 239°
2026-05-09 03:37 23.41792 52.97843 29914 ft 469 kts 239°
2026-05-09 03:38 23.38545 52.91682 29913 ft 469 kts 240°
2026-05-09 03:38 23.35378 52.85476 29917 ft 469 kts 240°
2026-05-09 03:39 23.32211 52.79278 29914 ft 469 kts 240°
2026-05-09 03:39 23.29031 52.73091 29917 ft 468 kts 240°
2026-05-09 03:40 23.25845 52.66906 29918 ft 468 kts 240°
2026-05-09 03:40 23.22665 52.60740 29920 ft 468 kts 240°
2026-05-09 03:41 23.19479 52.54568 29926 ft 468 kts 240°
2026-05-09 03:41 23.16825 52.48121 29919 ft 469 kts 250°
2026-05-09 03:42 23.14794 52.41385 29924 ft 469 kts 250°
2026-05-09 03:42 23.12674 52.34700 29925 ft 469 kts 249°
2026-05-09 03:43 23.10531 52.27996 29929 ft 469 kts 249°
2026-05-09 03:43 23.08394 52.21302 29925 ft 469 kts 249°
2026-05-09 03:44 23.06261 52.14618 29929 ft 469 kts 249°
2026-05-09 03:44 23.04126 52.07936 29936 ft 468 kts 249°
2026-05-09 03:45 23.01987 52.01253 29929 ft 468 kts 249°
2026-05-09 03:45 22.99859 51.94614 29933 ft 468 kts 249°
2026-05-09 03:46 22.97699 51.87888 29932 ft 468 kts 249°
2026-05-09 03:46 22.95568 51.81266 29932 ft 469 kts 249°
2026-05-09 03:47 22.93417 51.74588 29935 ft 469 kts 249°
2026-05-09 03:47 22.91261 51.67904 29932 ft 469 kts 249°
2026-05-09 03:48 22.89103 51.61228 29934 ft 469 kts 249°
2026-05-09 03:48 22.86942 51.54549 29938 ft 470 kts 249°
2026-05-09 03:49 22.85142 51.47739 29932 ft 472 kts 259°
2026-05-09 03:49 22.84595 51.40631 29943 ft 475 kts 269°
2026-05-09 03:50 22.85019 51.33465 29947 ft 477 kts 271°
2026-05-09 03:50 22.85514 51.26296 29945 ft 477 kts 271°
2026-05-09 03:51 22.85980 51.19128 29943 ft 477 kts 271°
2026-05-09 03:51 22.86422 51.11945 29944 ft 477 kts 271°
2026-05-09 03:52 22.86853 51.04771 29946 ft 477 kts 271°
2026-05-09 03:52 22.87281 50.97593 29944 ft 477 kts 271°
2026-05-09 03:53 22.87707 50.90415 29945 ft 477 kts 271°
2026-05-09 03:53 22.88130 50.83243 29948 ft 477 kts 271°
2026-05-09 03:54 22.88550 50.76062 29949 ft 477 kts 271°
2026-05-09 03:54 22.88967 50.68887 29947 ft 477 kts 271°
2026-05-09 03:55 22.89380 50.61724 29951 ft 477 kts 271°
2026-05-09 03:55 22.89790 50.54549 29962 ft 477 kts 270°
2026-05-09 03:56 22.90197 50.47373 29948 ft 477 kts 270°
2026-05-09 03:56 22.90600 50.40201 29945 ft 476 kts 270°
2026-05-09 03:57 22.91000 50.33025 29949 ft 477 kts 270°
2026-05-09 03:57 22.91395 50.25895 29951 ft 477 kts 270°
2026-05-09 03:58 22.91789 50.18717 29949 ft 477 kts 270°
2026-05-09 03:58 22.92180 50.11529 29949 ft 477 kts 270°
2026-05-09 03:59 22.92568 50.04340 29951 ft 477 kts 270°
2026-05-09 03:59 22.92953 49.97154 29955 ft 478 kts 270°
2026-05-09 04:00 22.93335 49.89959 29960 ft 478 kts 270°
2026-05-09 04:00 22.93714 49.82769 29970 ft 477 kts 270°
2026-05-09 04:01 22.94088 49.75601 29943 ft 475 kts 270°
2026-05-09 04:01 22.94458 49.68457 29956 ft 474 kts 270°
2026-05-09 04:02 22.94824 49.61319 29966 ft 473 kts 270°
2026-05-09 04:02 22.95186 49.54191 29960 ft 473 kts 270°
2026-05-09 04:03 22.95544 49.47066 29959 ft 473 kts 269°
2026-05-09 04:03 22.95900 49.39935 29968 ft 473 kts 269°
2026-05-09 04:04 22.96253 49.32802 29965 ft 474 kts 269°
2026-05-09 04:04 22.96603 49.25663 29968 ft 474 kts 269°
2026-05-09 04:05 22.96950 49.18522 29977 ft 474 kts 269°
2026-05-09 04:05 22.97285 49.11579 29964 ft 474 kts 269°
2026-05-09 04:06 22.97624 49.04465 29974 ft 473 kts 269°
2026-05-09 04:06 22.97960 48.97353 29969 ft 472 kts 269°
2026-05-09 04:07 22.98293 48.90231 29970 ft 472 kts 269°
2026-05-09 04:07 22.98623 48.83120 29970 ft 472 kts 269°
2026-05-09 04:08 22.98949 48.76014 29978 ft 472 kts 269°
2026-05-09 04:08 22.99216 48.70137 29981 ft 472 kts 269°
2026-05-09 04:09 22.99536 48.63033 29984 ft 472 kts 269°
2026-05-09 04:09 22.99854 48.55910 29985 ft 472 kts 269°
2026-05-09 04:10 23.00169 48.48791 30000 ft 472 kts 269°
2026-05-09 04:10 23.00481 48.41667 29992 ft 471 kts 268°
2026-05-09 04:11 23.00788 48.34570 29990 ft 470 kts 268°
2026-05-09 04:11 23.01091 48.27490 29993 ft 469 kts 268°
2026-05-09 04:12 23.01391 48.20416 30004 ft 469 kts 268°
2026-05-09 04:12 23.01688 48.13341 29999 ft 469 kts 268°
2026-05-09 04:13 23.01981 48.06276 29999 ft 469 kts 268°
2026-05-09 04:13 23.02271 47.99211 30004 ft 469 kts 268°
2026-05-09 04:14 23.02558 47.92143 30005 ft 469 kts 268°
2026-05-09 04:14 23.03166 47.85103 30016 ft 475 kts 283°
2026-05-09 04:15 23.04546 47.81808 30017 ft 487 kts 297°
2026-05-09 04:15 23.06640 47.78875 30024 ft 497 kts 309°
2026-05-09 04:15 23.09355 47.76497 30030 ft 506 kts 322°
2026-05-09 04:15 23.12379 47.74506 30024 ft 510 kts 324°
2026-05-09 04:16 23.18457 47.70609 30033 ft 512 kts 323°
2026-05-09 04:16 23.24521 47.66598 30038 ft 512 kts 322°
2026-05-09 04:17 23.30576 47.62499 30035 ft 512 kts 322°
2026-05-09 04:17 23.36615 47.58395 30040 ft 511 kts 322°
2026-05-09 04:18 23.42652 47.54299 30044 ft 511 kts 321°
2026-05-09 04:18 23.48686 47.50203 30054 ft 511 kts 321°
2026-05-09 04:19 23.54719 47.46107 30031 ft 511 kts 321°
2026-05-09 04:19 23.60759 47.42002 30065 ft 511 kts 321°
2026-05-09 04:20 23.66792 47.37896 30048 ft 512 kts 321°
2026-05-09 04:20 23.72840 47.33776 30045 ft 512 kts 321°
2026-05-09 04:21 23.78884 47.29653 30046 ft 512 kts 321°
2026-05-09 04:22 23.87944 47.23465 30045 ft 511 kts 321°
2026-05-09 04:22 23.93968 47.19344 30048 ft 510 kts 321°
2026-05-09 04:23 23.99973 47.15231 30047 ft 509 kts 321°
2026-05-09 04:23 24.05969 47.11119 30050 ft 508 kts 321°
2026-05-09 04:24 24.12035 47.07098 30038 ft 512 kts 326°
2026-05-09 04:24 24.18613 47.03930 30079 ft 518 kts 331°
2026-05-09 04:25 24.25269 47.00923 30057 ft 518 kts 331°
2026-05-09 04:25 24.31913 46.97872 30049 ft 517 kts 330°
2026-05-09 04:26 24.38487 46.94811 30075 ft 516 kts 330°
2026-05-09 04:26 24.45085 46.91728 30054 ft 513 kts 330°
2026-05-09 04:27 24.51638 46.88667 30044 ft 510 kts 330°
2026-05-09 04:27 24.57955 46.85713 30072 ft 508 kts 330°
2026-05-09 04:28 24.64456 46.82669 30059 ft 507 kts 329°
2026-05-09 04:28 24.70920 46.79639 30073 ft 507 kts 329°
2026-05-09 04:29 24.77409 46.76593 30124 ft 507 kts 329°
2026-05-09 04:29 24.83902 46.73543 30101 ft 508 kts 329°
2026-05-09 04:30 24.90395 46.70490 30098 ft 507 kts 329°
2026-05-09 04:30 24.96701 46.67146 30119 ft 497 kts 320°
2026-05-09 04:31 25.02237 46.62736 30097 ft 484 kts 310°
2026-05-09 04:31 25.07123 46.57708 30123 ft 480 kts 309°
2026-05-09 04:32 25.11994 46.52666 30104 ft 480 kts 309°
2026-05-09 04:32 25.16883 46.47643 30091 ft 481 kts 310°
2026-05-09 04:33 25.21789 46.42621 30081 ft 481 kts 310°
2026-05-09 04:33 25.26700 46.37590 30082 ft 482 kts 310°
2026-05-09 04:34 25.31575 46.32587 30091 ft 483 kts 310°
2026-05-09 04:34 25.36497 46.27530 30082 ft 484 kts 310°
2026-05-09 04:35 25.41430 46.22457 30080 ft 484 kts 310°
2026-05-09 04:35 25.46362 46.17378 30100 ft 484 kts 310°
2026-05-09 04:36 25.51295 46.12291 30070 ft 485 kts 310°
2026-05-09 04:36 25.56219 46.07208 30072 ft 485 kts 310°
2026-05-09 04:37 25.61151 46.02111 30070 ft 484 kts 310°
2026-05-09 04:37 25.66075 45.97016 30080 ft 485 kts 310°
2026-05-09 04:38 25.71002 45.91912 30083 ft 485 kts 310°
2026-05-09 04:38 25.75924 45.86807 30073 ft 485 kts 310°
2026-05-09 04:39 25.80847 45.81694 30076 ft 484 kts 310°
2026-05-09 04:39 25.85757 45.76588 30079 ft 484 kts 310°
2026-05-09 04:40 25.90671 45.71473 30079 ft 483 kts 310°
2026-05-09 04:40 25.95581 45.66356 30092 ft 483 kts 310°
2026-05-09 04:41 26.00474 45.61247 30086 ft 483 kts 310°
2026-05-09 04:41 26.05338 45.56163 30084 ft 483 kts 311°
2026-05-09 04:42 26.10227 45.51048 30093 ft 482 kts 311°
2026-05-09 04:42 26.15102 45.45941 30084 ft 481 kts 311°
2026-05-09 04:43 26.19960 45.40847 30079 ft 479 kts 311°
2026-05-09 04:43 26.24808 45.35758 30084 ft 478 kts 312°
2026-05-09 04:44 26.29624 45.30698 30087 ft 476 kts 312°
2026-05-09 04:44 26.34445 45.25639 30076 ft 475 kts 312°
2026-05-09 04:45 26.39252 45.20601 30073 ft 474 kts 312°
2026-05-09 04:45 26.44048 45.15565 30083 ft 472 kts 313°
2026-05-09 04:46 26.48811 45.10558 30077 ft 469 kts 313°
2026-05-09 04:46 26.53552 45.05564 30077 ft 467 kts 313°
2026-05-09 04:47 26.58274 45.00586 30074 ft 466 kts 314°
2026-05-09 04:47 26.62979 44.95625 30073 ft 463 kts 314°
2026-05-09 04:48 26.67642 44.90703 30063 ft 459 kts 314°
2026-05-09 04:48 26.72275 44.85804 30063 ft 457 kts 314°
2026-05-09 04:49 26.76885 44.80925 30065 ft 456 kts 314°
2026-05-09 04:49 26.81497 44.76030 30064 ft 457 kts 314°
2026-05-09 04:50 26.86116 44.71119 30067 ft 459 kts 314°
2026-05-09 04:50 26.90755 44.66181 30076 ft 460 kts 314°
2026-05-09 04:51 26.95391 44.61242 30073 ft 460 kts 315°
2026-05-09 04:51 27.00009 44.56316 30059 ft 456 kts 315°
2026-05-09 04:52 27.04585 44.51423 30054 ft 453 kts 315°
2026-05-09 04:52 27.09097 44.46590 30052 ft 450 kts 315°
2026-05-09 04:53 27.13623 44.41736 30075 ft 450 kts 315°
2026-05-09 04:53 27.18141 44.36887 30066 ft 449 kts 315°
2026-05-09 04:54 27.21928 44.32829 30140 ft 450 kts 315°
2026-05-09 04:54 27.24932 44.29606 30306 ft 451 kts 315°
2026-05-09 04:54 27.27202 44.27169 30421 ft 452 kts 315°
2026-05-09 04:54 27.29474 44.24728 30545 ft 451 kts 315°
2026-05-09 04:55 27.31738 44.22295 30664 ft 450 kts 315°
2026-05-09 04:55 27.33996 44.19865 30780 ft 449 kts 315°
2026-05-09 04:55 27.36245 44.17445 30896 ft 448 kts 315°
2026-05-09 04:56 27.40736 44.12606 31135 ft 446 kts 315°
2026-05-09 04:56 27.44461 44.08587 31315 ft 446 kts 315°
2026-05-09 04:56 27.46702 44.06168 31439 ft 446 kts 315°
2026-05-09 04:57 27.48937 44.03754 31558 ft 446 kts 315°
2026-05-09 04:57 27.51177 44.01333 31686 ft 446 kts 315°
2026-05-09 04:57 27.53413 43.98915 31808 ft 446 kts 315°
2026-05-09 04:57 27.55650 43.96495 31925 ft 445 kts 315°
2026-05-09 04:58 27.57884 43.94075 31978 ft 445 kts 315°
2026-05-09 04:58 27.62346 43.89240 32072 ft 444 kts 315°
2026-05-09 04:59 27.66796 43.84412 32076 ft 444 kts 315°
2026-05-09 04:59 27.71099 43.79737 32085 ft 443 kts 315°
2026-05-09 05:00 27.75537 43.74910 32080 ft 443 kts 315°
2026-05-09 05:00 27.79968 43.70087 32084 ft 442 kts 315°
2026-05-09 05:01 27.84383 43.65272 32087 ft 441 kts 315°
2026-05-09 05:01 27.88664 43.60307 32091 ft 440 kts 312°
2026-05-09 05:02 27.92821 43.55216 32079 ft 440 kts 312°
2026-05-09 05:02 27.96979 43.50139 32087 ft 440 kts 312°
2026-05-09 05:03 28.01152 43.45082 32090 ft 440 kts 312°
2026-05-09 05:03 28.05335 43.40025 32105 ft 440 kts 312°
2026-05-09 05:04 28.09509 43.34977 32089 ft 439 kts 312°
2026-05-09 05:04 28.13679 43.29924 32090 ft 439 kts 312°
2026-05-09 05:05 28.17844 43.24872 32093 ft 438 kts 312°
2026-05-09 05:05 28.21972 43.19858 32099 ft 438 kts 312°
2026-05-09 05:06 28.26127 43.14805 32090 ft 437 kts 312°
2026-05-09 05:06 28.30273 43.09757 32100 ft 437 kts 312°
2026-05-09 05:07 28.34418 43.04704 32092 ft 437 kts 312°
2026-05-09 05:07 28.38563 42.99644 32091 ft 437 kts 312°
2026-05-09 05:08 28.42700 42.94587 32097 ft 437 kts 312°
2026-05-09 05:08 28.46836 42.89526 32118 ft 437 kts 312°
2026-05-09 05:09 28.50975 42.84455 32102 ft 437 kts 312°
2026-05-09 05:09 28.55113 42.79378 32097 ft 437 kts 312°
2026-05-09 05:10 28.59241 42.74307 32101 ft 437 kts 312°
2026-05-09 05:10 28.63372 42.69228 32103 ft 437 kts 312°
2026-05-09 05:11 28.67500 42.64146 32103 ft 437 kts 312°
2026-05-09 05:11 28.71622 42.59064 32107 ft 437 kts 311°
2026-05-09 05:12 28.75627 42.54119 32105 ft 437 kts 311°
2026-05-09 05:12 28.79749 42.49024 32108 ft 437 kts 311°
2026-05-09 05:13 28.83871 42.43922 32109 ft 437 kts 311°
2026-05-09 05:13 28.87967 42.38845 32123 ft 438 kts 311°
2026-05-09 05:14 28.92089 42.33730 32114 ft 438 kts 311°
2026-05-09 05:14 28.96208 42.28611 32111 ft 438 kts 311°
2026-05-09 05:15 29.00331 42.23481 32114 ft 438 kts 311°
2026-05-09 05:15 29.04449 42.18353 32124 ft 438 kts 311°
2026-05-09 05:16 29.08569 42.13216 32118 ft 438 kts 311°
2026-05-09 05:16 29.12682 42.08081 32123 ft 438 kts 311°
2026-05-09 05:17 29.16792 42.02942 32119 ft 438 kts 311°
2026-05-09 05:17 29.20906 41.97791 32126 ft 438 kts 310°
2026-05-09 05:18 29.25018 41.92636 32126 ft 439 kts 310°
2026-05-09 05:18 29.29128 41.87477 32139 ft 439 kts 310°
2026-05-09 05:19 29.33242 41.82305 32133 ft 439 kts 310°
2026-05-09 05:19 29.37362 41.77120 32133 ft 439 kts 310°
2026-05-09 05:20 29.41476 41.71936 32132 ft 440 kts 310°
2026-05-09 05:20 29.45589 41.66746 32134 ft 440 kts 310°
2026-05-09 05:21 29.49677 41.61580 32131 ft 440 kts 310°
2026-05-09 05:21 29.53787 41.56381 32137 ft 440 kts 310°
2026-05-09 05:22 29.57894 41.51178 32138 ft 440 kts 310°
2026-05-09 05:22 29.61999 41.45971 32140 ft 440 kts 310°
2026-05-09 05:23 29.66110 41.40748 32140 ft 440 kts 310°
2026-05-09 05:23 29.70224 41.35516 32139 ft 440 kts 310°
2026-05-09 05:24 29.74375 41.30335 32130 ft 442 kts 313°
2026-05-09 05:24 29.78966 41.25612 32128 ft 442 kts 315°
2026-05-09 05:25 29.83570 41.20926 32129 ft 442 kts 315°
2026-05-09 05:25 29.90465 41.13854 32133 ft 442 kts 315°
2026-05-09 05:26 29.95050 41.09133 32138 ft 442 kts 315°
2026-05-09 05:26 29.99636 41.04405 32147 ft 443 kts 315°
2026-05-09 05:27 30.04227 40.99666 32133 ft 443 kts 315°
2026-05-09 05:27 30.08825 40.94914 32134 ft 444 kts 315°
2026-05-09 05:28 30.13423 40.90156 32148 ft 444 kts 315°
2026-05-09 05:28 30.18021 40.85392 32134 ft 444 kts 315°
2026-05-09 05:29 30.22588 40.80653 32134 ft 444 kts 315°
2026-05-09 05:29 30.27208 40.75853 32136 ft 444 kts 315°
2026-05-09 05:30 30.31799 40.71076 32132 ft 443 kts 314°
2026-05-09 05:30 30.36353 40.66332 32153 ft 443 kts 314°
2026-05-09 05:31 30.40947 40.61562 32134 ft 444 kts 315°
2026-05-09 05:31 30.45576 40.56832 32148 ft 444 kts 315°
2026-05-09 05:32 30.50209 40.52100 32135 ft 444 kts 315°
2026-05-09 05:32 30.54833 40.47362 32135 ft 444 kts 315°
2026-05-09 05:33 30.59452 40.42618 32134 ft 444 kts 315°
2026-05-09 05:33 30.64071 40.37865 32138 ft 443 kts 315°
2026-05-09 05:34 30.68688 40.33108 32134 ft 444 kts 315°
2026-05-09 05:34 30.73301 40.28349 32132 ft 444 kts 315°
2026-05-09 05:35 30.77917 40.23581 32144 ft 444 kts 314°
2026-05-09 05:35 30.82536 40.18802 32135 ft 445 kts 314°
2026-05-09 05:36 30.87159 40.14014 32127 ft 445 kts 314°
2026-05-09 05:36 30.91778 40.09223 32129 ft 445 kts 314°
2026-05-09 05:37 30.96396 40.04428 32125 ft 445 kts 314°
2026-05-09 05:37 31.00771 39.99879 32120 ft 445 kts 314°
2026-05-09 05:38 31.05392 39.95066 32124 ft 445 kts 314°
2026-05-09 05:38 31.10011 39.90250 32123 ft 446 kts 314°
2026-05-09 05:39 31.14634 39.85422 32122 ft 446 kts 314°
2026-05-09 05:39 31.19259 39.80586 32118 ft 446 kts 314°
2026-05-09 05:40 31.23874 39.75755 32116 ft 446 kts 314°
2026-05-09 05:40 31.28492 39.70913 32115 ft 446 kts 314°
2026-05-09 05:41 31.33112 39.66061 32112 ft 446 kts 314°
2026-05-09 05:41 31.37729 39.61207 32114 ft 446 kts 314°
2026-05-09 05:42 31.41589 39.57144 32115 ft 446 kts 314°
2026-05-09 05:42 31.46202 39.52280 32116 ft 446 kts 314°
2026-05-09 05:43 31.50815 39.47406 32113 ft 447 kts 314°
2026-05-09 05:43 31.55430 39.42522 32112 ft 447 kts 314°
2026-05-09 05:44 31.60015 39.37663 32111 ft 447 kts 314°
2026-05-09 05:44 31.64626 39.32769 32111 ft 447 kts 314°
2026-05-09 05:45 31.69241 39.27864 32111 ft 448 kts 314°
2026-05-09 05:45 31.73888 39.22918 32114 ft 448 kts 314°
2026-05-09 05:46 31.78565 39.18076 32105 ft 451 kts 318°
2026-05-09 05:46 31.83853 39.14037 32117 ft 457 kts 328°
2026-05-09 05:47 31.89527 39.10736 32112 ft 458 kts 329°
2026-05-09 05:47 31.95240 39.07401 32114 ft 458 kts 328°
2026-05-09 05:48 32.00937 39.04030 32111 ft 458 kts 328°
2026-05-09 05:48 32.06641 39.00658 32108 ft 458 kts 328°
2026-05-09 05:49 32.12344 38.97303 32107 ft 458 kts 328°
2026-05-09 05:49 32.17810 38.94083 32105 ft 458 kts 328°
2026-05-09 05:50 32.23506 38.90719 32099 ft 457 kts 328°
2026-05-09 05:50 32.29200 38.87350 32096 ft 457 kts 328°
2026-05-09 05:51 32.34893 38.83977 32096 ft 458 kts 328°
2026-05-09 05:51 32.40595 38.80594 32096 ft 459 kts 328°
2026-05-09 05:52 32.46263 38.77225 32089 ft 459 kts 328°
2026-05-09 05:52 32.51974 38.73827 32086 ft 460 kts 328°
2026-05-09 05:53 32.57693 38.70420 32086 ft 460 kts 328°
2026-05-09 05:53 32.63418 38.67007 32105 ft 460 kts 328°
2026-05-09 05:54 32.69139 38.63595 32085 ft 461 kts 329°
2026-05-09 05:54 32.74867 38.60174 32085 ft 460 kts 329°
2026-05-09 05:55 32.80589 38.56751 32087 ft 461 kts 329°
2026-05-09 05:55 32.86308 38.53323 32088 ft 460 kts 329°
2026-05-09 05:56 32.92032 38.49887 32099 ft 460 kts 329°
2026-05-09 05:56 32.97747 38.46453 32087 ft 460 kts 329°
2026-05-09 05:57 33.03456 38.43019 32083 ft 459 kts 329°
2026-05-09 05:57 33.09151 38.39587 32084 ft 459 kts 329°
2026-05-09 05:58 33.14851 38.36144 32085 ft 458 kts 328°
2026-05-09 05:58 33.20519 38.32682 32087 ft 458 kts 328°
2026-05-09 05:59 33.26202 38.29209 32084 ft 458 kts 328°
2026-05-09 05:59 33.31880 38.25743 32085 ft 459 kts 328°
2026-05-09 06:00 33.37528 38.22288 32086 ft 459 kts 328°
2026-05-09 06:00 33.43218 38.18802 32090 ft 459 kts 328°
2026-05-09 06:01 33.48914 38.15321 32085 ft 460 kts 328°
2026-05-09 06:01 33.54630 38.11859 32083 ft 460 kts 328°
2026-05-09 06:02 33.60343 38.08394 32084 ft 461 kts 328°
2026-05-09 06:02 33.66062 38.04914 32091 ft 461 kts 328°
2026-05-09 06:03 33.71780 38.01428 32108 ft 461 kts 329°
2026-05-09 06:03 33.77490 37.97941 32097 ft 460 kts 329°
2026-05-09 06:04 33.83181 37.94429 32089 ft 458 kts 326°
2026-05-09 06:04 33.88048 37.89664 32104 ft 449 kts 310°
2026-05-09 06:05 33.91697 37.83638 32098 ft 445 kts 300°
2026-05-09 06:05 33.94945 37.77288 32104 ft 446 kts 300°
2026-05-09 06:06 33.98202 37.70975 32109 ft 447 kts 300°
2026-05-09 06:06 34.01508 37.64616 32105 ft 449 kts 300°
2026-05-09 06:07 34.04733 37.58420 32107 ft 449 kts 300°
2026-05-09 06:07 34.08056 37.52023 32107 ft 450 kts 300°
2026-05-09 06:08 34.11374 37.45623 32135 ft 451 kts 300°
2026-05-09 06:08 34.14700 37.39194 32124 ft 450 kts 301°
2026-05-09 06:09 34.18008 37.32792 32115 ft 448 kts 301°
2026-05-09 06:09 34.20662 37.26032 32115 ft 445 kts 287°
2026-05-09 06:10 34.21352 37.23152 32120 ft 445 kts 284°
2026-05-09 06:10 34.22230 37.15773 32085 ft 444 kts 276°
2026-05-09 06:11 34.22769 37.08335 32104 ft 444 kts 276°
2026-05-09 06:11 34.23326 37.00930 32106 ft 446 kts 276°
2026-05-09 06:12 34.23905 36.93466 32110 ft 447 kts 276°
2026-05-09 06:12 34.24488 36.85976 32108 ft 448 kts 276°
2026-05-09 06:13 34.25068 36.78472 32108 ft 448 kts 276°
2026-05-09 06:13 34.25642 36.70968 32106 ft 448 kts 276°
2026-05-09 06:14 34.26212 36.63461 32111 ft 447 kts 276°
2026-05-09 06:14 34.26755 36.55974 32100 ft 447 kts 275°
2026-05-09 06:15 34.27044 36.48466 32102 ft 447 kts 273°
2026-05-09 06:15 34.27271 36.40974 32116 ft 446 kts 273°
2026-05-09 06:16 34.27527 36.33476 32096 ft 446 kts 273°
2026-05-09 06:16 34.27797 36.25990 32112 ft 445 kts 274°
2026-05-09 06:17 34.28065 36.18504 32110 ft 445 kts 273°
2026-05-09 06:17 34.28326 36.11024 32101 ft 445 kts 273°
2026-05-09 06:18 34.28584 36.03544 32106 ft 446 kts 273°
2026-05-09 06:18 34.28867 35.96049 32112 ft 447 kts 274°
2026-05-09 06:19 34.29234 35.88580 32102 ft 447 kts 274°
2026-05-09 06:19 34.29595 35.81077 32097 ft 447 kts 274°
2026-05-09 06:20 34.29971 35.73576 32083 ft 446 kts 277°
2026-05-09 06:20 34.31141 35.66212 32070 ft 445 kts 286°
2026-05-09 06:21 34.33121 35.59118 32073 ft 445 kts 289°
2026-05-09 06:21 34.35140 35.52040 32072 ft 445 kts 288°
2026-05-09 06:22 34.37138 35.44943 32076 ft 446 kts 288°
2026-05-09 06:22 34.39123 35.37838 32068 ft 446 kts 288°
2026-05-09 06:23 34.41104 35.30723 32066 ft 446 kts 288°
2026-05-09 06:23 34.43082 35.23605 32070 ft 446 kts 288°
2026-05-09 06:24 34.45057 35.16483 32070 ft 446 kts 288°
2026-05-09 06:24 34.47119 35.09416 32061 ft 444 kts 296°
2026-05-09 06:25 34.48778 35.06262 32067 ft 446 kts 307°
2026-05-09 06:25 34.50894 35.03504 32071 ft 449 kts 315°
2026-05-09 06:25 34.53388 35.01210 32076 ft 452 kts 326°
2026-05-09 06:25 34.56118 34.99306 32083 ft 453 kts 327°
2026-05-09 06:26 34.61617 34.95531 32069 ft 455 kts 327°
2026-05-09 06:26 34.67109 34.91691 32063 ft 456 kts 326°
2026-05-09 06:27 34.72584 34.87808 32080 ft 455 kts 326°
2026-05-09 06:27 34.78047 34.83914 32081 ft 455 kts 326°
2026-05-09 06:28 34.83360 34.80122 32078 ft 455 kts 326°
2026-05-09 06:28 34.87897 34.76880 32073 ft 454 kts 326°
2026-05-09 06:29 34.93342 34.72986 32086 ft 454 kts 326°
2026-05-09 06:29 34.98779 34.69090 32078 ft 453 kts 326°
2026-05-09 06:30 35.04210 34.65193 32074 ft 452 kts 326°
2026-05-09 06:30 35.09633 34.61296 32097 ft 452 kts 326°
2026-05-09 06:31 35.15054 34.57393 32083 ft 452 kts 326°
2026-05-09 06:31 35.20461 34.53493 32077 ft 451 kts 326°
2026-05-09 06:32 35.25866 34.49588 32081 ft 451 kts 325°
2026-05-09 06:33 35.33976 34.43718 32088 ft 451 kts 325°
2026-05-09 06:33 35.39376 34.39801 32086 ft 451 kts 325°
2026-05-09 06:34 35.47473 34.33918 32090 ft 451 kts 325°
2026-05-09 06:34 35.52874 34.29985 32094 ft 451 kts 325°
2026-05-09 06:35 35.58272 34.26048 32094 ft 452 kts 325°
2026-05-09 06:35 35.63637 34.22130 32104 ft 452 kts 325°
2026-05-09 06:36 35.69032 34.18183 32097 ft 451 kts 325°
2026-05-09 06:36 35.74422 34.14233 32090 ft 450 kts 325°
2026-05-09 06:37 35.79799 34.10287 32095 ft 449 kts 325°
2026-05-09 06:37 35.85166 34.06341 32095 ft 449 kts 325°
2026-05-09 06:38 35.90526 34.02394 32120 ft 449 kts 324°
2026-05-09 06:38 35.95871 33.98403 32103 ft 448 kts 324°
2026-05-09 06:39 36.01183 33.94366 32112 ft 448 kts 324°
2026-05-09 06:39 36.06496 33.90326 32093 ft 448 kts 324°
2026-05-09 06:40 36.11795 33.86300 32109 ft 447 kts 324°
2026-05-09 06:40 36.17099 33.82265 32123 ft 447 kts 324°
2026-05-09 06:41 36.22400 33.78226 32113 ft 447 kts 323°
2026-05-09 06:41 36.27688 33.74191 32111 ft 447 kts 323°
2026-05-09 06:42 36.32984 33.70160 32127 ft 447 kts 323°
2026-05-09 06:42 36.38282 33.66124 32125 ft 447 kts 323°
2026-05-09 06:43 36.43577 33.62079 32137 ft 447 kts 323°
2026-05-09 06:43 36.48869 33.58031 32147 ft 447 kts 323°
2026-05-09 06:44 36.54128 33.54002 32139 ft 446 kts 323°
2026-05-09 06:44 36.59406 33.49951 32141 ft 446 kts 323°
2026-05-09 06:45 36.64684 33.45892 32157 ft 446 kts 323°
2026-05-09 06:45 36.69956 33.41831 32152 ft 446 kts 323°
2026-05-09 06:46 36.75232 33.37761 32172 ft 446 kts 323°
2026-05-09 06:46 36.80509 33.33684 32165 ft 446 kts 323°
2026-05-09 06:47 36.85647 33.29387 32162 ft 442 kts 316°
2026-05-09 06:47 36.90092 33.24163 32167 ft 436 kts 308°
2026-05-09 06:48 36.94177 33.18552 32164 ft 436 kts 308°
2026-05-09 06:48 36.98267 33.12945 32185 ft 436 kts 309°
2026-05-09 06:49 37.02340 33.07379 32209 ft 436 kts 309°
2026-05-09 06:49 37.06440 33.01775 32182 ft 436 kts 308°
2026-05-09 06:50 37.10535 32.96172 32188 ft 435 kts 308°
2026-05-09 06:50 37.14618 32.90573 32177 ft 435 kts 308°
2026-05-09 06:51 37.18699 32.84970 32189 ft 435 kts 308°
2026-05-09 06:51 37.22775 32.79360 32178 ft 434 kts 308°
2026-05-09 06:52 37.26840 32.73758 32180 ft 434 kts 308°
2026-05-09 06:52 37.30904 32.68148 32176 ft 433 kts 308°
2026-05-09 06:53 37.34962 32.62536 32182 ft 434 kts 308°
2026-05-09 06:53 37.39011 32.56926 32203 ft 433 kts 308°
2026-05-09 06:54 37.43058 32.51309 32186 ft 433 kts 308°
2026-05-09 06:54 37.47090 32.45704 32185 ft 431 kts 308°
2026-05-09 06:55 37.51109 32.40107 32180 ft 431 kts 308°
2026-05-09 06:55 37.55113 32.34520 32200 ft 430 kts 308°
2026-05-09 06:56 37.59088 32.28964 32175 ft 429 kts 308°
2026-05-09 06:56 37.63070 32.23389 32195 ft 428 kts 308°
2026-05-09 06:57 37.67036 32.17831 32200 ft 427 kts 308°
2026-05-09 06:57 37.71006 32.12262 32180 ft 426 kts 308°
2026-05-09 06:58 37.74978 32.06679 32202 ft 428 kts 309°
2026-05-09 06:58 37.78960 32.01071 32193 ft 429 kts 308°
2026-05-09 06:59 37.82945 31.95449 32193 ft 430 kts 309°
2026-05-09 06:59 37.86929 31.89819 32191 ft 430 kts 309°
2026-05-09 07:00 37.90914 31.84178 32190 ft 429 kts 309°
2026-05-09 07:00 37.94890 31.78539 32207 ft 429 kts 309°
2026-05-09 07:01 37.98854 31.72907 32189 ft 428 kts 309°
2026-05-09 07:01 38.02817 31.67265 32191 ft 428 kts 309°
2026-05-09 07:02 38.06769 31.61631 32193 ft 427 kts 309°
2026-05-09 07:02 38.10696 31.56023 32199 ft 429 kts 309°
2026-05-09 07:03 38.14679 31.50318 32205 ft 432 kts 309°
2026-05-09 07:03 38.18677 31.44582 32187 ft 434 kts 309°
2026-05-09 07:04 38.22679 31.38833 32185 ft 434 kts 309°
2026-05-09 07:04 38.26676 31.33078 32186 ft 434 kts 309°
2026-05-09 07:05 38.30665 31.27322 32185 ft 433 kts 309°
2026-05-09 07:05 38.34649 31.21565 32187 ft 433 kts 309°
2026-05-09 07:06 38.38620 31.15816 32179 ft 430 kts 309°
2026-05-09 07:06 38.42560 31.10102 32180 ft 428 kts 309°
2026-05-09 07:07 38.46505 31.04421 32172 ft 427 kts 311°
2026-05-09 07:07 38.50959 30.99392 32176 ft 430 kts 321°
2026-05-09 07:08 38.55889 30.95052 32179 ft 432 kts 322°
2026-05-09 07:08 38.60825 30.90714 32174 ft 432 kts 322°
2026-05-09 07:09 38.65767 30.86336 32171 ft 432 kts 321°
2026-05-09 07:09 38.70696 30.81951 32180 ft 431 kts 321°
2026-05-09 07:10 38.75628 30.77554 32180 ft 432 kts 322°
2026-05-09 07:10 38.80540 30.73169 32157 ft 433 kts 322°
2026-05-09 07:11 38.85535 30.68818 32175 ft 436 kts 325°
2026-05-09 07:11 38.90940 30.65219 32177 ft 439 kts 329°
2026-05-09 07:12 38.96404 30.61709 32166 ft 439 kts 329°
2026-05-09 07:12 39.01871 30.58162 32166 ft 441 kts 329°
2026-05-09 07:13 39.07350 30.54588 32164 ft 443 kts 329°
2026-05-09 07:13 39.12856 30.50987 32158 ft 444 kts 329°
2026-05-09 07:14 39.18360 30.47383 32151 ft 444 kts 329°
2026-05-09 07:14 39.23874 30.43765 32161 ft 445 kts 329°
2026-05-09 07:15 39.28458 30.40752 32154 ft 445 kts 329°
2026-05-09 07:15 39.33969 30.37125 32149 ft 445 kts 329°
2026-05-09 07:16 39.39483 30.33489 32141 ft 444 kts 329°
2026-05-09 07:16 39.44973 30.29863 32141 ft 443 kts 329°
2026-05-09 07:17 39.50485 30.26265 32144 ft 445 kts 332°
2026-05-09 07:17 39.56225 30.23181 32133 ft 447 kts 334°
2026-05-09 07:18 39.62004 30.20139 32138 ft 448 kts 334°
2026-05-09 07:18 39.67781 30.17068 32131 ft 449 kts 334°
2026-05-09 07:19 39.73569 30.13972 32123 ft 450 kts 334°
2026-05-09 07:19 39.79361 30.10865 32132 ft 451 kts 334°
2026-05-09 07:20 39.85004 30.07832 32114 ft 451 kts 333°
2026-05-09 07:20 39.90807 30.04709 32103 ft 451 kts 333°
2026-05-09 07:21 39.96603 30.01584 32107 ft 451 kts 334°
2026-05-09 07:21 40.02370 29.98467 32098 ft 451 kts 334°
2026-05-09 07:22 40.08162 29.95328 32108 ft 451 kts 334°
2026-05-09 07:22 40.13953 29.92183 32098 ft 451 kts 334°
2026-05-09 07:23 40.19755 29.89026 32099 ft 452 kts 334°
2026-05-09 07:23 40.25560 29.85863 32102 ft 452 kts 334°
2026-05-09 07:24 40.31416 29.82665 32084 ft 453 kts 334°
2026-05-09 07:24 40.37200 29.79502 32091 ft 453 kts 334°
2026-05-09 07:25 40.43027 29.76307 32100 ft 455 kts 334°
2026-05-09 07:25 40.48880 29.73093 32101 ft 456 kts 334°
2026-05-09 07:26 40.54741 29.69868 32094 ft 458 kts 334°
2026-05-09 07:26 40.60617 29.66630 32093 ft 457 kts 334°
2026-05-09 07:27 40.66322 29.62986 32092 ft 455 kts 326°
2026-05-09 07:27 40.71435 29.58116 32081 ft 452 kts 319°
2026-05-09 07:28 40.76322 29.52906 32078 ft 452 kts 319°
2026-05-09 07:28 40.81230 29.47699 32077 ft 453 kts 319°
2026-05-09 07:29 40.86156 29.42494 32076 ft 453 kts 319°
2026-05-09 07:29 40.91077 29.37293 32080 ft 453 kts 319°
2026-05-09 07:30 40.96004 29.32072 32072 ft 453 kts 319°
2026-05-09 07:30 41.00922 29.26850 32086 ft 454 kts 319°
2026-05-09 07:31 41.05844 29.21614 32063 ft 455 kts 319°
2026-05-09 07:31 41.10711 29.16285 32060 ft 452 kts 314°
2026-05-09 07:32 41.14869 29.10072 32063 ft 449 kts 304°
2026-05-09 07:32 41.18318 29.03214 32052 ft 450 kts 301°
2026-05-09 07:33 41.23482 28.92780 32052 ft 452 kts 302°
2026-05-09 07:34 41.26953 28.85807 32050 ft 453 kts 302°
2026-05-09 07:34 41.30432 28.78815 32054 ft 454 kts 302°
2026-05-09 07:35 41.33910 28.71810 32045 ft 454 kts 302°
2026-05-09 07:35 41.37378 28.64807 32048 ft 452 kts 302°
2026-05-09 07:36 41.40829 28.57822 32048 ft 451 kts 302°
2026-05-09 07:36 41.44268 28.50845 32046 ft 450 kts 302°
2026-05-09 07:37 41.47700 28.43871 32050 ft 450 kts 302°
2026-05-09 07:37 41.51619 28.37348 32046 ft 452 kts 313°
2026-05-09 07:38 41.56133 28.31489 32056 ft 454 kts 314°
2026-05-09 07:38 41.60681 28.25561 32049 ft 458 kts 313°
2026-05-09 07:39 41.65221 28.19586 32043 ft 460 kts 313°
2026-05-09 07:39 41.69776 28.13563 32043 ft 461 kts 313°
2026-05-09 07:40 41.74338 28.07519 32038 ft 461 kts 313°
2026-05-09 07:40 41.78859 28.01515 32036 ft 460 kts 313°
2026-05-09 07:41 41.83395 27.95481 32029 ft 459 kts 313°
2026-05-09 07:41 41.87929 27.89435 32027 ft 460 kts 313°
2026-05-09 07:42 41.92468 27.83369 32038 ft 461 kts 313°
2026-05-09 07:42 41.97005 27.77294 32036 ft 462 kts 313°
2026-05-09 07:43 42.01525 27.71144 32023 ft 462 kts 313°
2026-05-09 07:43 42.06022 27.64961 32026 ft 462 kts 313°
2026-05-09 07:44 42.10515 27.58778 32018 ft 462 kts 313°
2026-05-09 07:44 42.15003 27.52597 32034 ft 461 kts 313°
2026-05-09 07:45 42.19502 27.46390 32026 ft 462 kts 313°
2026-05-09 07:45 42.23995 27.40178 32026 ft 463 kts 313°
2026-05-09 07:46 42.28498 27.33940 32009 ft 464 kts 313°
2026-05-09 07:46 42.32978 27.27720 32010 ft 465 kts 313°
2026-05-09 07:47 42.37489 27.21443 32007 ft 466 kts 313°
2026-05-09 07:47 42.42004 27.15146 32005 ft 466 kts 313°
2026-05-09 07:48 42.46508 27.08850 32005 ft 466 kts 313°
2026-05-09 07:48 42.51024 27.02524 32007 ft 468 kts 313°
2026-05-09 07:49 42.55558 26.96159 32028 ft 469 kts 313°
2026-05-09 07:49 42.60092 26.89780 32024 ft 470 kts 313°
2026-05-09 07:50 42.64628 26.83383 32020 ft 470 kts 313°
2026-05-09 07:50 42.69155 26.76984 32017 ft 469 kts 313°
2026-05-09 07:51 42.73678 26.70576 32019 ft 469 kts 313°
2026-05-09 07:51 42.78199 26.64157 31996 ft 470 kts 313°
2026-05-09 07:52 42.82726 26.57717 31991 ft 470 kts 313°
2026-05-09 07:52 42.87249 26.51280 31991 ft 471 kts 313°
2026-05-09 07:53 42.91781 26.44817 31990 ft 472 kts 313°
2026-05-09 07:53 42.96315 26.38334 31987 ft 473 kts 313°
2026-05-09 07:54 43.00861 26.31818 31991 ft 474 kts 313°
2026-05-09 07:54 43.05414 26.25277 31992 ft 475 kts 313°
2026-05-09 07:55 43.09941 26.18757 31988 ft 477 kts 313°
2026-05-09 07:55 43.14512 26.12159 31989 ft 479 kts 313°
2026-05-09 07:56 43.19103 26.05518 31996 ft 480 kts 313°
2026-05-09 07:56 43.23694 25.98861 32007 ft 481 kts 312°
2026-05-09 07:57 43.28286 25.92187 32008 ft 481 kts 312°
2026-05-09 07:57 43.32877 25.85498 32007 ft 481 kts 312°
2026-05-09 07:58 43.37459 25.78807 32004 ft 481 kts 312°
2026-05-09 07:58 43.42034 25.72109 32005 ft 481 kts 312°
2026-05-09 07:59 43.46615 25.65386 31996 ft 482 kts 312°
2026-05-09 07:59 43.51199 25.58643 31991 ft 482 kts 312°
2026-05-09 08:00 43.55781 25.51888 31998 ft 482 kts 311°
2026-05-09 08:00 43.60357 25.45125 31997 ft 482 kts 311°
2026-05-09 08:01 43.64828 25.38244 31994 ft 481 kts 309°
2026-05-09 08:01 43.69094 25.31146 31989 ft 480 kts 308°
2026-05-09 08:02 43.73338 25.24012 32004 ft 480 kts 308°
2026-05-09 08:02 43.76872 25.18088 32002 ft 480 kts 308°
2026-05-09 08:03 43.81009 25.11169 31992 ft 480 kts 308°
2026-05-09 08:03 43.85271 25.04034 31991 ft 480 kts 308°
2026-05-09 08:04 43.89519 24.96904 32007 ft 479 kts 308°
2026-05-09 08:04 43.93753 24.89778 31996 ft 479 kts 308°
2026-05-09 08:05 43.97978 24.82649 31998 ft 478 kts 308°
2026-05-09 08:05 44.02201 24.75505 32004 ft 478 kts 308°
2026-05-09 08:06 44.06409 24.68369 32004 ft 477 kts 308°
2026-05-09 08:06 44.10589 24.61264 32002 ft 477 kts 308°
2026-05-09 08:07 44.14773 24.54133 32236 ft 475 kts 308°
2026-05-09 08:07 44.16862 24.50567 32349 ft 476 kts 308°
2026-05-09 08:07 44.18958 24.46983 32476 ft 476 kts 308°
2026-05-09 08:07 44.21044 24.43413 32625 ft 475 kts 307°
2026-05-09 08:08 44.23131 24.39837 32739 ft 475 kts 307°
2026-05-09 08:08 44.25215 24.36261 32863 ft 475 kts 307°
2026-05-09 08:08 44.27297 24.32684 33007 ft 474 kts 307°
2026-05-09 08:08 44.29374 24.29111 33125 ft 474 kts 307°
2026-05-09 08:09 44.31449 24.25538 33271 ft 474 kts 307°
2026-05-09 08:09 44.33521 24.21964 33425 ft 473 kts 307°
2026-05-09 08:09 44.35589 24.18393 33562 ft 473 kts 307°
2026-05-09 08:09 44.37660 24.14814 33726 ft 473 kts 307°
2026-05-09 08:10 44.39729 24.11231 33862 ft 474 kts 307°
2026-05-09 08:10 44.43856 24.04076 33992 ft 472 kts 307°
2026-05-09 08:11 44.47966 23.96932 34035 ft 471 kts 307°
2026-05-09 08:11 44.52070 23.89778 34037 ft 471 kts 307°
2026-05-09 08:12 44.57980 23.78791 34034 ft 469 kts 302°
2026-05-09 08:12 44.61642 23.71215 34042 ft 469 kts 302°
2026-05-09 08:13 44.65314 23.63620 34037 ft 471 kts 302°
2026-05-09 08:13 44.69015 23.56045 34031 ft 469 kts 302°
2026-05-09 08:14 44.72712 23.48503 34031 ft 469 kts 302°
2026-05-09 08:14 44.76414 23.40936 34034 ft 470 kts 302°
2026-05-09 08:15 44.80115 23.33347 34036 ft 471 kts 302°
2026-05-09 08:15 44.83828 23.25714 34036 ft 472 kts 302°
2026-05-09 08:16 44.87537 23.18067 34037 ft 473 kts 302°
2026-05-09 08:16 44.91250 23.10391 34041 ft 474 kts 302°
2026-05-09 08:17 44.94960 23.02700 34042 ft 474 kts 302°
2026-05-09 08:17 44.98664 22.95002 34032 ft 474 kts 302°
2026-05-09 08:18 45.02356 22.87308 34027 ft 472 kts 302°
2026-05-09 08:18 45.06010 22.79672 34064 ft 471 kts 302°
2026-05-09 08:19 45.09701 22.71936 34061 ft 471 kts 302°
2026-05-09 08:19 45.13347 22.64280 34047 ft 472 kts 301°
2026-05-09 08:20 45.17003 22.56580 34056 ft 471 kts 301°
2026-05-09 08:20 45.20660 22.48853 34092 ft 472 kts 301°
2026-05-09 08:21 45.24308 22.41127 34069 ft 471 kts 301°
2026-05-09 08:21 45.27945 22.33404 34065 ft 469 kts 301°
2026-05-09 08:22 45.31565 22.25695 34063 ft 468 kts 301°
2026-05-09 08:22 45.35166 22.18004 34071 ft 467 kts 301°
2026-05-09 08:23 45.38763 22.10303 34067 ft 467 kts 301°
2026-05-09 08:23 45.42357 22.02587 34071 ft 468 kts 301°
2026-05-09 08:24 45.45953 21.94846 34071 ft 470 kts 301°
2026-05-09 08:24 45.49565 21.87044 34082 ft 473 kts 301°
2026-05-09 08:25 45.53184 21.79211 34070 ft 474 kts 301°
2026-05-09 08:25 45.56800 21.71364 34062 ft 473 kts 301°
2026-05-09 08:26 45.60410 21.63507 34066 ft 473 kts 301°
2026-05-09 08:26 45.64005 21.55660 34067 ft 471 kts 301°
2026-05-09 08:27 45.67582 21.47831 34047 ft 470 kts 301°
2026-05-09 08:27 45.71125 21.40056 34063 ft 468 kts 301°
2026-05-09 08:28 45.74659 21.32278 34076 ft 467 kts 301°
2026-05-09 08:28 45.78190 21.24483 34094 ft 466 kts 301°
2026-05-09 08:29 45.81711 21.16692 34062 ft 465 kts 300°
2026-05-09 08:29 45.85222 21.08900 34089 ft 465 kts 300°
2026-05-09 08:30 45.88730 21.01092 34069 ft 466 kts 300°
2026-05-09 08:30 45.92232 20.93275 34090 ft 466 kts 301°
2026-05-09 08:31 45.95728 20.85453 34063 ft 464 kts 301°
2026-05-09 08:31 45.99195 20.77674 34066 ft 461 kts 301°
2026-05-09 08:32 46.02642 20.69916 34063 ft 459 kts 301°
2026-05-09 08:33 46.07781 20.58310 34070 ft 456 kts 301°
2026-05-09 08:33 46.11164 20.50644 34065 ft 452 kts 301°
2026-05-09 08:34 46.14527 20.43003 34062 ft 449 kts 301°
2026-05-09 08:34 46.17866 20.35399 34071 ft 451 kts 300°
2026-05-09 08:35 46.21248 20.27670 34082 ft 455 kts 300°
2026-05-09 08:35 46.24595 20.20004 34062 ft 449 kts 300°
2026-05-09 08:36 46.27880 20.12461 34064 ft 444 kts 300°
2026-05-09 08:36 46.31161 20.04904 34076 ft 443 kts 300°
2026-05-09 08:37 46.34439 19.97330 34081 ft 446 kts 300°
2026-05-09 08:37 46.37737 19.89690 34091 ft 449 kts 300°
2026-05-09 08:38 46.41056 19.81982 34088 ft 452 kts 300°
2026-05-09 08:38 46.44382 19.74234 34089 ft 453 kts 300°
2026-05-09 08:39 46.47706 19.66472 34099 ft 452 kts 300°
2026-05-09 08:39 46.51008 19.58742 34085 ft 449 kts 300°
2026-05-09 08:40 46.54277 19.51066 34089 ft 445 kts 300°
2026-05-09 08:40 46.57515 19.43441 34093 ft 443 kts 300°
2026-05-09 08:41 46.60744 19.35813 34094 ft 443 kts 300°
2026-05-09 08:41 46.63968 19.28178 34099 ft 443 kts 300°
2026-05-09 08:42 46.67188 19.20532 34098 ft 442 kts 300°
2026-05-09 08:42 46.70390 19.12907 34100 ft 441 kts 300°
2026-05-09 08:43 46.73584 19.05279 34097 ft 440 kts 300°
2026-05-09 08:43 46.76746 18.97708 34111 ft 439 kts 300°
2026-05-09 08:44 46.79931 18.90062 34100 ft 437 kts 300°
2026-05-09 08:44 46.83072 18.82498 34100 ft 435 kts 300°
2026-05-09 08:45 46.86201 18.74944 34102 ft 433 kts 299°
2026-05-09 08:45 46.89293 18.67458 34116 ft 433 kts 299°
2026-05-09 08:46 46.92398 18.59921 34110 ft 433 kts 299°
2026-05-09 08:46 46.95501 18.52366 34109 ft 433 kts 299°
2026-05-09 08:47 46.98596 18.44810 34110 ft 433 kts 299°
2026-05-09 08:47 47.01691 18.37233 34109 ft 434 kts 299°
2026-05-09 08:48 47.04788 18.29633 34119 ft 434 kts 298°
2026-05-09 08:48 47.07873 18.22040 34112 ft 433 kts 298°
2026-05-09 08:49 47.10954 18.14434 34116 ft 433 kts 298°
2026-05-09 08:49 47.13507 18.08116 34110 ft 433 kts 298°
2026-05-09 08:50 47.16571 18.00516 34122 ft 432 kts 298°
2026-05-09 08:50 47.19627 17.92912 34113 ft 431 kts 298°
2026-05-09 08:51 47.22587 17.85527 34112 ft 431 kts 298°
2026-05-09 08:51 47.25624 17.77928 34123 ft 431 kts 298°
2026-05-09 08:52 47.28657 17.70317 34136 ft 431 kts 298°
2026-05-09 08:52 47.31688 17.62693 34149 ft 431 kts 298°
2026-05-09 08:53 47.34714 17.55059 34119 ft 430 kts 298°
2026-05-09 08:53 47.37721 17.47452 34123 ft 429 kts 298°
2026-05-09 08:54 47.40722 17.39838 34146 ft 428 kts 298°
2026-05-09 08:54 47.43712 17.32229 34126 ft 428 kts 297°
2026-05-09 08:55 47.46693 17.24624 34130 ft 427 kts 297°
2026-05-09 08:55 47.49639 17.17087 34134 ft 426 kts 297°
2026-05-09 08:56 47.52617 17.09443 34140 ft 425 kts 297°
2026-05-09 08:56 47.55545 17.01909 34143 ft 425 kts 297°
2026-05-09 08:57 47.58491 16.94308 34154 ft 425 kts 297°
2026-05-09 08:57 47.61448 16.86655 34143 ft 425 kts 297°
2026-05-09 08:58 47.64384 16.79037 34141 ft 425 kts 297°
2026-05-09 08:58 47.67287 16.71480 34142 ft 425 kts 297°
2026-05-09 08:59 47.70208 16.63858 34144 ft 425 kts 297°
2026-05-09 08:59 47.73143 16.56175 34141 ft 425 kts 297°
2026-05-09 09:00 47.76051 16.48541 34149 ft 425 kts 297°
2026-05-09 09:00 47.78958 16.40888 34150 ft 425 kts 297°
2026-05-09 09:01 47.81856 16.33239 34146 ft 425 kts 297°
2026-05-09 09:01 47.84755 16.25563 34143 ft 425 kts 296°
2026-05-09 09:02 47.87642 16.17898 34144 ft 424 kts 296°
2026-05-09 09:02 47.90506 16.10271 34145 ft 424 kts 296°
2026-05-09 09:03 47.93378 16.02601 34138 ft 424 kts 296°
2026-05-09 09:03 47.96246 15.94920 34152 ft 423 kts 296°
2026-05-09 09:04 47.99105 15.87238 34150 ft 424 kts 296°
2026-05-09 09:04 48.01962 15.79543 34140 ft 423 kts 296°
2026-05-09 09:05 48.04809 15.71853 34139 ft 422 kts 296°
2026-05-09 09:05 48.07638 15.64187 34146 ft 421 kts 296°
2026-05-09 09:06 48.10465 15.56504 34142 ft 421 kts 296°
2026-05-09 09:06 48.13282 15.48827 34151 ft 421 kts 295°
2026-05-09 09:07 48.16102 15.41117 34147 ft 422 kts 295°
2026-05-09 09:07 48.18920 15.33391 34146 ft 423 kts 295°
2026-05-09 09:08 48.21744 15.25627 34147 ft 424 kts 295°
2026-05-09 09:08 48.24558 15.17868 34141 ft 425 kts 295°
2026-05-09 09:09 48.27382 15.10057 34141 ft 425 kts 295°
2026-05-09 09:09 48.30197 15.02249 34138 ft 425 kts 295°
2026-05-09 09:10 48.32990 14.94478 34172 ft 426 kts 295°
2026-05-09 09:10 48.35530 14.86379 34152 ft 426 kts 290°
2026-05-09 09:11 48.37815 14.78222 34143 ft 427 kts 290°
2026-05-09 09:11 48.40125 14.69958 34133 ft 429 kts 290°
2026-05-09 09:12 48.42456 14.61691 34138 ft 431 kts 290°
2026-05-09 09:12 48.44808 14.53369 34142 ft 432 kts 290°
2026-05-09 09:13 48.47162 14.45020 34142 ft 432 kts 290°
2026-05-09 09:13 48.49506 14.36681 34139 ft 432 kts 290°
2026-05-09 09:14 48.51843 14.28333 34151 ft 432 kts 290°
2026-05-09 09:14 48.54176 14.19968 34144 ft 432 kts 290°
2026-05-09 09:15 48.56502 14.11603 34134 ft 432 kts 290°
2026-05-09 09:15 48.58820 14.03235 34136 ft 432 kts 290°
2026-05-09 09:16 48.61131 13.94860 34130 ft 433 kts 290°
2026-05-09 09:16 48.64605 13.82218 34134 ft 435 kts 290°
2026-05-09 09:17 48.66919 13.73761 34142 ft 436 kts 290°
2026-05-09 09:17 48.69230 13.65280 34137 ft 436 kts 290°
2026-05-09 09:18 48.71538 13.56779 34138 ft 437 kts 290°
2026-05-09 09:18 48.73852 13.48231 34141 ft 439 kts 290°
2026-05-09 09:19 48.76170 13.39630 34142 ft 443 kts 290°
2026-05-09 09:19 48.78501 13.30952 34144 ft 446 kts 290°
2026-05-09 09:20 48.80845 13.22195 34141 ft 448 kts 290°
2026-05-09 09:20 48.83184 13.13420 34139 ft 449 kts 290°
2026-05-09 09:21 48.85518 13.04636 34137 ft 449 kts 290°
2026-05-09 09:21 48.87848 12.95829 34146 ft 449 kts 290°
2026-05-09 09:22 48.90149 12.87101 34135 ft 448 kts 290°
2026-05-09 09:22 48.92454 12.78322 34139 ft 448 kts 290°
2026-05-09 09:23 48.94759 12.69512 34142 ft 447 kts 290°
2026-05-09 09:23 48.97049 12.60723 34145 ft 447 kts 290°
2026-05-09 09:24 48.99329 12.51940 34146 ft 446 kts 290°
2026-05-09 09:24 49.01605 12.43140 34143 ft 447 kts 290°
2026-05-09 09:25 49.03874 12.34327 34145 ft 447 kts 290°
2026-05-09 09:25 49.06140 12.25497 34152 ft 447 kts 290°
2026-05-09 09:26 49.08385 12.16714 34149 ft 447 kts 290°
2026-05-09 09:26 49.10638 12.07867 34149 ft 448 kts 290°
2026-05-09 09:27 49.12881 11.99019 34145 ft 449 kts 290°
2026-05-09 09:27 49.15137 11.90091 34152 ft 452 kts 290°
2026-05-09 09:28 49.17399 11.81103 34155 ft 455 kts 290°
2026-05-09 09:28 49.19666 11.72056 34150 ft 457 kts 290°
2026-05-09 09:29 49.21932 11.62975 34147 ft 457 kts 290°
2026-05-09 09:29 49.24191 11.53888 34139 ft 457 kts 291°
2026-05-09 09:30 49.26440 11.44805 34141 ft 456 kts 291°
2026-05-09 09:30 49.28677 11.35733 34138 ft 455 kts 290°
2026-05-09 09:31 49.30903 11.26665 34136 ft 454 kts 290°
2026-05-09 09:32 49.34229 11.13051 34118 ft 454 kts 291°
2026-05-09 09:32 49.36061 11.05517 34132 ft 454 kts 291°
2026-05-09 09:33 49.38268 10.96414 34131 ft 455 kts 291°
2026-05-09 09:33 49.40888 10.87567 34146 ft 455 kts 297°
2026-05-09 09:34 49.43744 10.78888 34163 ft 456 kts 297°
2026-05-09 09:34 49.46593 10.70161 34153 ft 457 kts 298°
2026-05-09 09:36 49.57897 10.34922 34131 ft 460 kts 298°
2026-05-09 09:37 49.60706 10.26083 34139 ft 459 kts 298°
2026-05-09 09:37 49.63491 10.17289 34138 ft 459 kts 298°
2026-05-09 09:38 49.66304 10.08373 34135 ft 459 kts 298°
2026-05-09 09:38 49.69071 9.99572 34139 ft 458 kts 298°
2026-05-09 09:39 49.71845 9.90718 34134 ft 458 kts 298°
2026-05-09 09:39 49.74612 9.81852 34136 ft 458 kts 298°
2026-05-09 09:40 49.77368 9.72994 34136 ft 457 kts 298°
2026-05-09 09:40 49.80119 9.64116 34139 ft 458 kts 298°
2026-05-09 09:41 49.82869 9.55211 34137 ft 458 kts 298°
2026-05-09 09:41 49.85613 9.46296 34131 ft 459 kts 298°
2026-05-09 09:42 49.88355 9.37351 34143 ft 460 kts 298°
2026-05-09 09:42 49.91100 9.28368 34133 ft 461 kts 298°
2026-05-09 09:43 49.93840 9.19362 34132 ft 462 kts 298°
2026-05-09 09:43 49.96576 9.10339 34117 ft 462 kts 298°
2026-05-09 09:44 49.99179 9.01716 34136 ft 451 kts 298°
2026-05-09 09:44 50.01887 8.92730 34147 ft 465 kts 298°
2026-05-09 09:45 50.04632 8.83579 34130 ft 466 kts 297°
2026-05-09 09:45 50.07118 8.74288 34135 ft 465 kts 293°
2026-05-09 09:46 50.09326 8.64850 34130 ft 463 kts 292°
2026-05-09 09:46 50.11517 8.55430 34128 ft 462 kts 293°
2026-05-09 09:47 50.13716 8.46018 34134 ft 462 kts 293°
2026-05-09 09:47 50.15912 8.36614 34139 ft 462 kts 293°
2026-05-09 09:48 50.18103 8.27195 34126 ft 463 kts 292°
2026-05-09 09:48 50.20294 8.17736 34141 ft 464 kts 292°
2026-05-09 09:49 50.22482 8.08240 34140 ft 465 kts 292°
2026-05-09 09:49 50.24650 7.98792 34145 ft 466 kts 292°
2026-05-09 09:50 50.26828 7.89253 34142 ft 466 kts 292°
2026-05-09 09:50 50.28999 7.79708 34127 ft 466 kts 291°
2026-05-09 09:51 50.31162 7.70151 34138 ft 466 kts 291°
2026-05-09 09:51 50.33318 7.60584 34131 ft 466 kts 291°
2026-05-09 09:52 50.35394 7.51329 34130 ft 466 kts 291°
2026-05-09 09:52 50.37530 7.41766 34138 ft 466 kts 291°
2026-05-09 09:53 50.39666 7.32160 34126 ft 466 kts 291°
2026-05-09 09:53 50.41787 7.22575 34130 ft 466 kts 290°
2026-05-09 09:54 50.43909 7.12938 34133 ft 467 kts 290°
2026-05-09 09:54 50.46022 7.03301 34120 ft 467 kts 290°
2026-05-09 09:55 50.48127 6.93654 34114 ft 467 kts 290°
2026-05-09 09:55 50.50227 6.83995 34109 ft 467 kts 290°
2026-05-09 09:56 50.52105 6.74216 34109 ft 468 kts 287°
2026-05-09 09:56 50.53812 6.64362 34103 ft 468 kts 286°
2026-05-09 09:57 50.55512 6.54494 34100 ft 468 kts 286°
2026-05-09 09:57 50.57226 6.44607 34101 ft 468 kts 285°
2026-05-09 09:58 50.58934 6.34745 34105 ft 467 kts 286°
2026-05-09 09:58 50.60635 6.24874 34094 ft 467 kts 285°
2026-05-09 09:59 50.62326 6.15003 34102 ft 467 kts 285°
2026-05-09 09:59 50.64007 6.05133 34102 ft 466 kts 285°
2026-05-09 10:00 50.65676 5.95275 34111 ft 466 kts 284°
2026-05-09 10:00 50.67337 5.85405 34117 ft 466 kts 284°
2026-05-09 10:01 50.68990 5.75532 34118 ft 466 kts 284°
2026-05-09 10:01 50.70634 5.65650 34122 ft 466 kts 284°
2026-05-09 10:02 50.72273 5.55746 34125 ft 467 kts 284°
2026-05-09 10:02 50.73907 5.45813 34134 ft 468 kts 284°
2026-05-09 10:03 50.75536 5.35852 34139 ft 470 kts 284°
2026-05-09 10:03 50.77163 5.25842 34131 ft 470 kts 284°
2026-05-09 10:04 50.78779 5.15852 34119 ft 470 kts 283°
2026-05-09 10:04 50.80449 5.05937 34113 ft 470 kts 287°
2026-05-09 10:05 50.83055 4.96443 34123 ft 472 kts 296°
2026-05-09 10:05 50.86051 4.87193 34120 ft 472 kts 296°
2026-05-09 10:06 50.89024 4.77917 34114 ft 472 kts 296°
2026-05-09 10:06 50.91965 4.68607 34141 ft 473 kts 295°
2026-05-09 10:07 50.94896 4.59257 34131 ft 474 kts 295°
2026-05-09 10:07 50.97827 4.49871 34132 ft 475 kts 295°
2026-05-09 10:08 51.00755 4.40464 34130 ft 476 kts 295°
2026-05-09 10:08 51.03682 4.31026 34125 ft 476 kts 295°
2026-05-09 10:09 51.06597 4.21589 34121 ft 476 kts 295°
2026-05-09 10:09 51.09509 4.12126 34119 ft 476 kts 295°
2026-05-09 10:10 51.12409 4.02666 34114 ft 476 kts 294°
2026-05-09 10:10 51.15298 3.93203 34105 ft 475 kts 294°
2026-05-09 10:11 51.18177 3.83735 34109 ft 475 kts 294°
2026-05-09 10:11 51.21056 3.74236 34102 ft 475 kts 294°
2026-05-09 10:12 51.23657 3.64636 34098 ft 474 kts 286°
2026-05-09 10:12 51.25158 3.54437 34102 ft 472 kts 279°
2026-05-09 10:13 51.26444 3.44139 34112 ft 473 kts 280°
2026-05-09 10:13 51.27792 3.33841 34109 ft 474 kts 280°
2026-05-09 10:14 51.29137 3.23506 34131 ft 475 kts 279°
2026-05-09 10:14 51.30470 3.13157 34124 ft 475 kts 279°
2026-05-09 10:15 51.31793 3.02811 34125 ft 475 kts 279°
2026-05-09 10:15 51.33105 2.92469 34117 ft 474 kts 279°
2026-05-09 10:16 51.34408 2.82136 34124 ft 474 kts 278°
2026-05-09 10:16 51.35698 2.71807 34120 ft 474 kts 278°
2026-05-09 10:17 51.36755 2.63184 34118 ft 474 kts 278°
2026-05-09 10:17 51.38014 2.52824 34118 ft 475 kts 278°
2026-05-09 10:18 51.39269 2.42436 34117 ft 475 kts 278°
2026-05-09 10:18 51.40517 2.32040 34121 ft 476 kts 277°
2026-05-09 10:19 51.41757 2.21621 34126 ft 477 kts 277°
2026-05-09 10:19 51.42991 2.11168 34124 ft 477 kts 277°
2026-05-09 10:20 51.44219 2.00706 34122 ft 478 kts 277°
2026-05-09 10:20 51.45523 1.90272 34135 ft 478 kts 278°
2026-05-09 10:21 51.46805 1.79805 34123 ft 478 kts 277°
2026-05-09 10:21 51.47982 1.69298 34130 ft 479 kts 277°
2026-05-09 10:22 51.49174 1.58780 34128 ft 479 kts 277°
2026-05-09 10:22 51.50356 1.48323 34138 ft 479 kts 277°
2026-05-09 10:23 51.51544 1.37735 34129 ft 480 kts 276°
2026-05-09 10:23 51.52713 1.27223 34153 ft 480 kts 276°
2026-05-09 10:24 51.53841 1.16640 34144 ft 479 kts 273°
2026-05-09 10:24 51.54025 1.06102 34142 ft 472 kts 262°
2026-05-09 10:25 51.53584 0.95518 34152 ft 473 kts 262°
2026-05-09 10:25 51.53153 0.85038 34133 ft 474 kts 262°
2026-05-09 10:26 51.52737 0.74476 34132 ft 474 kts 262°
2026-05-09 10:26 51.52324 0.63904 34129 ft 474 kts 262°
2026-05-09 10:27 51.51903 0.53340 34129 ft 474 kts 262°
2026-05-09 10:27 51.51472 0.42791 34138 ft 474 kts 261°
2026-05-09 10:28 51.51029 0.32207 34128 ft 475 kts 261°
2026-05-09 10:28 51.50577 0.21633 34130 ft 475 kts 261°
2026-05-09 10:29 51.50114 0.11031 34130 ft 476 kts 261°
2026-05-09 10:29 51.49643 0.00448 34130 ft 476 kts 261°
2026-05-09 10:30 51.49160 -0.10175 34126 ft 477 kts 259°
2026-05-09 10:30 51.48666 -0.20798 34128 ft 478 kts 259°
2026-05-09 10:31 51.48163 -0.31439 34134 ft 478 kts 259°
2026-05-09 10:31 51.47649 -0.42092 34131 ft 479 kts 259°
2026-05-09 10:32 51.47127 -0.52732 34127 ft 479 kts 259°
2026-05-09 10:32 51.46594 -0.63375 34130 ft 479 kts 259°
2026-05-09 10:33 51.46053 -0.73998 34123 ft 478 kts 259°
2026-05-09 10:33 51.45501 -0.84634 34116 ft 478 kts 259°
2026-05-09 10:34 51.44941 -0.95247 34122 ft 478 kts 259°
2026-05-09 10:34 51.44080 -1.11187 34122 ft 479 kts 259°
2026-05-09 10:35 51.43512 -1.21499 34121 ft 478 kts 258°
2026-05-09 10:35 51.42918 -1.32122 34114 ft 478 kts 258°
2026-05-09 10:36 51.42314 -1.42742 34107 ft 478 kts 258°
2026-05-09 10:36 51.41703 -1.53325 34119 ft 478 kts 258°
2026-05-09 10:37 51.41081 -1.63933 34120 ft 479 kts 258°
2026-05-09 10:37 51.40063 -1.74320 34122 ft 470 kts 249°
2026-05-09 10:38 51.37957 -1.84128 34120 ft 464 kts 243°
2026-05-09 10:38 51.35745 -1.93910 34139 ft 465 kts 244°
2026-05-09 10:39 51.33983 -2.03840 34104 ft 473 kts 255°
2026-05-09 10:39 51.33071 -2.14349 34098 ft 474 kts 256°
2026-05-09 10:40 51.32192 -2.24727 34104 ft 474 kts 256°
2026-05-09 10:40 51.31269 -2.35154 34101 ft 474 kts 256°
2026-05-09 10:41 51.30322 -2.45577 34112 ft 474 kts 256°
2026-05-09 10:41 51.29361 -2.56013 34098 ft 475 kts 256°
2026-05-09 10:42 51.28390 -2.66467 34101 ft 475 kts 256°
2026-05-09 10:42 51.27413 -2.76904 34103 ft 475 kts 256°
2026-05-09 10:43 51.26425 -2.87337 34123 ft 476 kts 256°
2026-05-09 10:43 51.25426 -2.97792 34108 ft 476 kts 256°
2026-05-09 10:44 51.24419 -3.08235 34101 ft 476 kts 256°
2026-05-09 10:44 51.23403 -3.18660 34102 ft 476 kts 256°
2026-05-09 10:46 51.20825 -3.44697 34101 ft 475 kts 256°
2026-05-09 10:46 51.19779 -3.55083 34102 ft 474 kts 256°
2026-05-09 10:47 51.18732 -3.65413 34092 ft 473 kts 256°
2026-05-09 10:47 51.17736 -3.75796 34103 ft 475 kts 260°
2026-05-09 10:48 51.17436 -3.86348 34104 ft 477 kts 264°
2026-05-09 10:48 51.17219 -3.96919 34102 ft 477 kts 264°
2026-05-09 10:49 51.16970 -4.07475 34097 ft 477 kts 263°
2026-05-09 10:49 51.16692 -4.18025 34086 ft 476 kts 263°
2026-05-09 10:50 51.16398 -4.28573 34110 ft 476 kts 263°
2026-05-09 10:50 51.16097 -4.39036 34088 ft 476 kts 263°
2026-05-09 10:51 51.15784 -4.49628 34088 ft 475 kts 263°
2026-05-09 10:51 51.15467 -4.60063 34099 ft 475 kts 263°
2026-05-09 10:52 51.15137 -4.70574 34094 ft 475 kts 263°
2026-05-09 10:52 51.14800 -4.81036 34104 ft 475 kts 263°
2026-05-09 10:53 51.14472 -4.90926 34097 ft 475 kts 263°
2026-05-09 10:53 51.14116 -5.01416 34095 ft 475 kts 263°
2026-05-09 10:54 51.13750 -5.11917 34096 ft 475 kts 263°
2026-05-09 10:54 51.13374 -5.22416 34102 ft 475 kts 263°
2026-05-09 10:55 51.12989 -5.32906 34101 ft 475 kts 263°
2026-05-09 10:55 51.12595 -5.43397 34098 ft 475 kts 263°
2026-05-09 10:56 51.12194 -5.53817 34102 ft 475 kts 263°
2026-05-09 10:56 51.11781 -5.64308 34101 ft 475 kts 263°
2026-05-09 10:57 51.11358 -5.74797 34109 ft 475 kts 263°
2026-05-09 10:57 51.10926 -5.85282 34099 ft 475 kts 263°
2026-05-09 10:58 51.10486 -5.95757 34104 ft 474 kts 263°
2026-05-09 10:58 51.10036 -6.06225 34103 ft 474 kts 263°
2026-05-09 10:59 51.09576 -6.16689 34106 ft 474 kts 263°
2026-05-09 10:59 51.09109 -6.27132 34105 ft 474 kts 263°
2026-05-09 11:00 51.08630 -6.37591 34107 ft 474 kts 263°
2026-05-09 11:00 51.08147 -6.47975 34110 ft 474 kts 262°
2026-05-09 11:01 51.07651 -6.58413 34109 ft 474 kts 262°
2026-05-09 11:01 51.07145 -6.68880 34110 ft 474 kts 263°
2026-05-09 11:02 51.06630 -6.79327 34104 ft 474 kts 262°
2026-05-09 11:02 51.06104 -6.89784 34108 ft 474 kts 263°
2026-05-09 11:03 51.05663 -6.98460 34105 ft 474 kts 261°
2026-05-09 11:03 51.05121 -7.08900 34111 ft 474 kts 262°
2026-05-09 11:04 51.04570 -7.19339 34104 ft 474 kts 262°
2026-05-09 11:04 51.04010 -7.29771 34149 ft 474 kts 262°
2026-05-09 11:04 51.03728 -7.34977 34261 ft 474 kts 262°
2026-05-09 11:05 51.03441 -7.40211 34375 ft 476 kts 262°
2026-05-09 11:05 51.03152 -7.45440 34511 ft 476 kts 263°
2026-05-09 11:05 51.02860 -7.50680 34617 ft 476 kts 262°
2026-05-09 11:05 51.02566 -7.55932 34732 ft 477 kts 262°
2026-05-09 11:06 51.02270 -7.61159 34857 ft 477 kts 263°
2026-05-09 11:06 51.01969 -7.66430 34963 ft 477 kts 263°
2026-05-09 11:06 51.01668 -7.71676 35086 ft 477 kts 262°
2026-05-09 11:06 51.01364 -7.76920 35209 ft 478 kts 263°
2026-05-09 11:07 51.01057 -7.82171 35328 ft 477 kts 263°
2026-05-09 11:07 51.00749 -7.87423 35446 ft 477 kts 263°
2026-05-09 11:07 51.00439 -7.92668 35563 ft 477 kts 262°
2026-05-09 11:07 51.00126 -7.97914 35687 ft 477 kts 262°
2026-05-09 11:08 50.99829 -8.03111 35804 ft 477 kts 263°
2026-05-09 11:08 50.99583 -8.08416 35936 ft 477 kts 264°
2026-05-09 11:08 50.99369 -8.13681 36022 ft 478 kts 265°
2026-05-09 11:09 50.98956 -8.24235 36079 ft 478 kts 265°
2026-05-09 11:09 50.98526 -8.34616 36118 ft 478 kts 264°
2026-05-09 11:10 50.98063 -8.45165 36120 ft 478 kts 264°
2026-05-09 11:10 50.97585 -8.55685 36127 ft 479 kts 264°
2026-05-09 11:11 50.97097 -8.66230 36116 ft 479 kts 264°
2026-05-09 11:11 50.96600 -8.76767 36124 ft 479 kts 264°
2026-05-09 11:12 50.96097 -8.87258 36118 ft 479 kts 264°
2026-05-09 11:12 50.95583 -8.97753 36122 ft 478 kts 264°
2026-05-09 11:13 50.95059 -9.08263 36121 ft 478 kts 264°
2026-05-09 11:13 50.94527 -9.18770 36123 ft 478 kts 264°
2026-05-09 11:14 50.93984 -9.29274 36120 ft 478 kts 264°
2026-05-09 11:14 50.93433 -9.39770 36119 ft 478 kts 264°
2026-05-09 11:15 50.92871 -9.50266 36124 ft 478 kts 264°
2026-05-09 11:15 50.92301 -9.60758 36115 ft 478 kts 264°
2026-05-09 11:16 50.91721 -9.71251 36125 ft 478 kts 264°
2026-05-09 11:16 50.91136 -9.81663 36117 ft 478 kts 264°
2026-05-09 11:17 50.90537 -9.92153 36123 ft 478 kts 264°
2026-05-09 11:17 50.89928 -10.02654 36125 ft 478 kts 264°
2026-05-09 11:18 50.89310 -10.13143 36120 ft 479 kts 264°
2026-05-09 11:18 50.88683 -10.23635 36128 ft 478 kts 264°
2026-05-09 11:19 50.88047 -10.34111 36127 ft 478 kts 263°
2026-05-09 11:19 50.87402 -10.44576 36138 ft 477 kts 263°
2026-05-09 11:20 50.86748 -10.55019 36135 ft 477 kts 263°
2026-05-09 11:20 50.86085 -10.65467 36136 ft 476 kts 263°
2026-05-09 11:21 50.85414 -10.75887 36140 ft 476 kts 263°
2026-05-09 11:21 50.84733 -10.86317 36136 ft 477 kts 263°
2026-05-09 11:22 50.84042 -10.96760 36145 ft 477 kts 263°
2026-05-09 11:22 50.83340 -11.07213 36139 ft 478 kts 263°
2026-05-09 11:23 50.82628 -11.17687 36145 ft 479 kts 263°
2026-05-09 11:23 50.81913 -11.28059 36142 ft 479 kts 263°
2026-05-09 11:24 50.81177 -11.38597 36141 ft 479 kts 263°
2026-05-09 11:24 50.80442 -11.48981 36149 ft 479 kts 263°
2026-05-09 11:25 50.79691 -11.59459 36144 ft 479 kts 263°
2026-05-09 11:25 50.78935 -11.69874 36153 ft 479 kts 263°
2026-05-09 11:26 50.78167 -11.80324 36148 ft 478 kts 263°
2026-05-09 11:26 50.77390 -11.90756 36151 ft 478 kts 263°
2026-05-09 11:27 50.76604 -12.01186 36154 ft 478 kts 263°
2026-05-09 11:27 50.76061 -12.08523 36186 ft 478 kts 263°
2026-05-09 11:28 50.75259 -12.18961 36170 ft 479 kts 263°
2026-05-09 11:28 50.74433 -12.29406 36156 ft 480 kts 263°
2026-05-09 11:29 50.73606 -12.39850 36164 ft 480 kts 263°
2026-05-09 11:29 50.72772 -12.50326 36161 ft 481 kts 263°
2026-05-09 11:30 50.71929 -12.60794 36157 ft 481 kts 263°
2026-05-09 11:30 50.71077 -12.71256 36170 ft 480 kts 263°
2026-05-09 11:31 50.70219 -12.81653 36173 ft 481 kts 263°
2026-05-09 11:31 50.69348 -12.92109 36174 ft 481 kts 263°
2026-05-09 11:32 50.68465 -13.02586 36172 ft 482 kts 263°
2026-05-09 11:32 50.67573 -13.13049 36169 ft 483 kts 263°
2026-05-09 11:33 50.66667 -13.23557 36177 ft 484 kts 263°
2026-05-09 11:33 50.65289 -13.39350 36185 ft 485 kts 263°
2026-05-09 11:34 50.64357 -13.49887 36173 ft 486 kts 263°
2026-05-09 11:34 50.63415 -13.60423 36176 ft 485 kts 263°
2026-05-09 11:35 50.62464 -13.70941 36190 ft 485 kts 263°
2026-05-09 11:35 50.61504 -13.81455 36190 ft 486 kts 263°
2026-05-09 11:36 50.60535 -13.91961 36203 ft 486 kts 262°
2026-05-09 11:36 50.59552 -14.02511 36200 ft 487 kts 263°
2026-05-09 11:37 50.58560 -14.13051 36196 ft 487 kts 263°
2026-05-09 11:37 50.57555 -14.23621 36207 ft 490 kts 263°
2026-05-09 11:38 50.56537 -14.34238 36197 ft 492 kts 262°
2026-05-09 11:38 50.55508 -14.44859 36201 ft 491 kts 262°
2026-05-09 11:39 50.54467 -14.55479 36210 ft 491 kts 262°
2026-05-09 11:40 50.52892 -14.71374 36210 ft 491 kts 262°
2026-05-09 11:40 50.51846 -14.81816 36210 ft 491 kts 263°
2026-05-09 11:41 50.50805 -14.92192 36215 ft 489 kts 264°
2026-05-09 11:41 50.50735 -14.97550 36222 ft 481 kts 276°
2026-05-09 11:41 50.50913 -15.02822 36223 ft 487 kts 272°
2026-05-09 11:42 50.51379 -15.13416 36198 ft 489 kts 286°
2026-05-09 11:42 50.54083 -15.23075 36222 ft 482 kts 309°
2026-05-09 11:43 50.57495 -15.32029 36228 ft 480 kts 290°
2026-05-09 11:43 50.58812 -15.42455 36241 ft 492 kts 282°
2026-05-09 11:44 50.59847 -15.53112 36248 ft 491 kts 281°
2026-05-09 11:44 50.60994 -15.63634 36236 ft 486 kts 282°
2026-05-09 11:45 50.62210 -15.74112 36256 ft 486 kts 283°
2026-05-09 11:45 50.63430 -15.84581 36265 ft 487 kts 284°
2026-05-09 11:46 50.64635 -15.95061 36261 ft 488 kts 283°
2026-05-09 11:46 50.65831 -16.05602 36265 ft 488 kts 282°
2026-05-09 11:47 50.67015 -16.16141 36270 ft 489 kts 284°
2026-05-09 11:47 50.68190 -16.26701 36291 ft 489 kts 284°
2026-05-09 11:48 50.69352 -16.37195 36295 ft 488 kts 282°
2026-05-09 11:48 50.70505 -16.47725 36289 ft 488 kts 282°
2026-05-09 11:49 50.71639 -16.58187 36295 ft 487 kts 283°
2026-05-09 11:49 50.72774 -16.68729 36300 ft 487 kts 282°
2026-05-09 11:50 50.73708 -16.77488 36312 ft 487 kts 282°
2026-05-09 11:50 50.74828 -16.88067 36302 ft 488 kts 282°
2026-05-09 11:51 50.75939 -16.98634 36333 ft 488 kts 282°
2026-05-09 11:51 50.77037 -17.09213 36317 ft 489 kts 284°
2026-05-09 11:52 50.78130 -17.19821 36331 ft 489 kts 284°
2026-05-09 11:52 50.79214 -17.30426 36312 ft 490 kts 283°
2026-05-09 11:53 50.80287 -17.41038 36335 ft 489 kts 283°
2026-05-09 11:53 50.81351 -17.51667 36348 ft 489 kts 282°
2026-05-09 11:54 50.82405 -17.62300 36328 ft 489 kts 283°
2026-05-09 11:54 50.83450 -17.72921 36352 ft 489 kts 283°
2026-05-09 11:55 50.84485 -17.83560 36354 ft 490 kts 283°
2026-05-09 11:56 50.87539 -18.15582 36355 ft 491 kts 283°
2026-05-09 11:57 50.88540 -18.26291 36365 ft 492 kts 283°
2026-05-09 11:57 50.89532 -18.37011 36374 ft 492 kts 283°
2026-05-09 11:58 50.90514 -18.47731 36376 ft 492 kts 283°
2026-05-09 11:58 50.91480 -18.58390 36378 ft 492 kts 282°
2026-05-09 11:59 50.92441 -18.69115 36368 ft 492 kts 283°
2026-05-09 11:59 50.93393 -18.79846 36383 ft 492 kts 283°
2026-05-09 12:00 50.94336 -18.90586 36387 ft 492 kts 282°
2026-05-09 12:00 50.95269 -19.01330 36390 ft 492 kts 282°
2026-05-09 12:01 50.96191 -19.12074 36382 ft 491 kts 283°
2026-05-09 12:01 50.97103 -19.22809 36387 ft 491 kts 283°
2026-05-09 12:02 50.98005 -19.33551 36399 ft 491 kts 283°
2026-05-09 12:02 50.98896 -19.44290 36405 ft 491 kts 282°
2026-05-09 12:03 50.99778 -19.55034 36405 ft 491 kts 282°
2026-05-09 12:03 51.00652 -19.65805 36416 ft 491 kts 282°
2026-05-09 12:04 51.01515 -19.76570 36417 ft 492 kts 282°
2026-05-09 12:04 51.02369 -19.87335 36418 ft 492 kts 282°
2026-05-09 12:05 51.03214 -19.98123 36416 ft 492 kts 282°
2026-05-09 12:05 51.03654 -20.08985 36421 ft 498 kts 275°
2026-05-09 12:06 51.03401 -20.20021 36432 ft 500 kts 272°
2026-05-09 12:06 51.03119 -20.31063 36419 ft 501 kts 274°
2026-05-09 12:07 51.02945 -20.42117 36439 ft 502 kts 275°
2026-05-09 12:07 51.02824 -20.53220 36435 ft 504 kts 275°
2026-05-09 12:08 51.02703 -20.64339 36448 ft 505 kts 275°
2026-05-09 12:08 51.02565 -20.75497 36430 ft 506 kts 275°
2026-05-09 12:09 51.02410 -20.86705 36449 ft 506 kts 275°
2026-05-09 12:09 51.02244 -20.97898 36451 ft 507 kts 275°
2026-05-09 12:10 51.01880 -21.20312 36464 ft 508 kts 275°
2026-05-09 12:11 51.01681 -21.31532 36448 ft 508 kts 275°
2026-05-09 12:11 51.01472 -21.42758 36461 ft 508 kts 275°
2026-05-09 12:12 51.01254 -21.53907 36464 ft 509 kts 275°
2026-05-09 12:12 51.01024 -21.65147 36469 ft 510 kts 275°
2026-05-09 12:13 51.00782 -21.76416 36458 ft 511 kts 276°
2026-05-09 12:13 51.00529 -21.87675 36479 ft 512 kts 275°
2026-05-09 12:14 51.00264 -21.98997 36481 ft 514 kts 275°
2026-05-09 12:14 50.99987 -22.10351 36482 ft 514 kts 275°
2026-05-09 12:15 50.99698 -22.21701 36481 ft 515 kts 275°
2026-05-09 12:15 50.99398 -22.33060 36482 ft 515 kts 275°
2026-05-09 12:16 50.99088 -22.44409 36489 ft 515 kts 275°
2026-05-09 12:16 50.98767 -22.55793 36493 ft 516 kts 275°
2026-05-09 12:17 50.98434 -22.67172 36500 ft 516 kts 275°
2026-05-09 12:17 50.98090 -22.78534 36475 ft 516 kts 275°
2026-05-09 12:18 50.97734 -22.89934 36461 ft 516 kts 276°
2026-05-09 12:18 50.97370 -23.01241 36497 ft 517 kts 276°
2026-05-09 12:19 50.96993 -23.12626 36509 ft 517 kts 276°
2026-05-09 12:19 50.96605 -23.24019 36507 ft 518 kts 276°
2026-05-09 12:20 50.96204 -23.35429 36505 ft 518 kts 276°
2026-05-09 12:20 50.95792 -23.46837 36518 ft 519 kts 275°
2026-05-09 12:21 50.95368 -23.58284 36515 ft 519 kts 275°
2026-05-09 12:21 50.94932 -23.69715 36518 ft 520 kts 275°
2026-05-09 12:22 50.94485 -23.81163 36512 ft 519 kts 275°
2026-05-09 12:22 50.94027 -23.92593 36519 ft 520 kts 275°
2026-05-09 12:23 50.93557 -24.04032 36527 ft 520 kts 275°
2026-05-09 12:23 50.93078 -24.15460 36528 ft 520 kts 275°
2026-05-09 12:24 50.92586 -24.26898 36506 ft 520 kts 275°
2026-05-09 12:24 50.92082 -24.38339 36537 ft 520 kts 275°
2026-05-09 12:25 50.91569 -24.49766 36535 ft 520 kts 275°
2026-05-09 12:25 50.91043 -24.61217 36543 ft 521 kts 275°
2026-05-09 12:26 50.90508 -24.72612 36543 ft 521 kts 274°
2026-05-09 12:26 50.89959 -24.84062 36542 ft 521 kts 274°
2026-05-09 12:27 50.89399 -24.95510 36540 ft 521 kts 274°
2026-05-09 12:27 50.88828 -25.06959 36549 ft 521 kts 274°
2026-05-09 12:28 50.88246 -25.18385 36538 ft 521 kts 274°
2026-05-09 12:28 50.87656 -25.29762 36536 ft 521 kts 274°
2026-05-09 12:29 50.87051 -25.41192 36538 ft 521 kts 274°
2026-05-09 12:29 50.86432 -25.52690 36550 ft 521 kts 274°
2026-05-09 12:30 50.85809 -25.64056 36547 ft 521 kts 274°
2026-05-09 12:30 50.84844 -25.81263 36552 ft 520 kts 273°
2026-05-09 12:31 50.83864 -25.98275 36554 ft 520 kts 273°
2026-05-09 12:32 50.83195 -26.09660 36558 ft 520 kts 273°
2026-05-09 12:32 50.82514 -26.21048 36560 ft 520 kts 273°
2026-05-09 12:33 50.81822 -26.32424 36559 ft 519 kts 273°
2026-05-09 12:33 50.81121 -26.43776 36567 ft 519 kts 273°
2026-05-09 12:34 50.80523 -26.53309 36567 ft 520 kts 272°
2026-05-09 12:34 50.79806 -26.64596 36569 ft 520 kts 272°
2026-05-09 12:35 50.79072 -26.75961 36558 ft 519 kts 272°
2026-05-09 12:35 50.78327 -26.87315 36576 ft 520 kts 272°
2026-05-09 12:36 50.77571 -26.98671 36570 ft 520 kts 272°
2026-05-09 12:36 50.76805 -27.10013 36575 ft 520 kts 272°
2026-05-09 12:37 50.76026 -27.21359 36545 ft 518 kts 272°
2026-05-09 12:37 50.75239 -27.32661 36575 ft 517 kts 272°
2026-05-09 12:38 50.74444 -27.43937 36578 ft 516 kts 271°
2026-05-09 12:38 50.73639 -27.55204 36583 ft 516 kts 271°
2026-05-09 12:39 50.72824 -27.66450 36585 ft 516 kts 271°
2026-05-09 12:39 50.71997 -27.77697 36592 ft 515 kts 271°
2026-05-09 12:40 50.71161 -27.88923 36585 ft 515 kts 271°
2026-05-09 12:40 50.70314 -28.00147 36597 ft 515 kts 271°
2026-05-09 12:41 50.69455 -28.11378 36594 ft 515 kts 271°
2026-05-09 12:41 50.68587 -28.22597 36584 ft 515 kts 271°
2026-05-09 12:42 50.67707 -28.33808 36595 ft 515 kts 271°
2026-05-09 12:42 50.66824 -28.44928 36596 ft 515 kts 270°
2026-05-09 12:43 50.65924 -28.56126 36563 ft 515 kts 270°
2026-05-09 12:43 50.65013 -28.67301 36566 ft 514 kts 270°
2026-05-09 12:44 50.64095 -28.78436 36595 ft 512 kts 270°
2026-05-09 12:44 50.63169 -28.89552 36600 ft 511 kts 270°
2026-05-09 12:45 50.62234 -29.00636 36607 ft 510 kts 270°
2026-05-09 12:45 50.61290 -29.11707 36608 ft 510 kts 270°
2026-05-09 12:46 50.60336 -29.22766 36609 ft 509 kts 270°
2026-05-09 12:46 50.59371 -29.33813 36607 ft 509 kts 270°
2026-05-09 12:47 50.58399 -29.44834 36614 ft 509 kts 270°
2026-05-09 12:47 50.57414 -29.55873 36609 ft 509 kts 270°
2026-05-09 12:48 50.56419 -29.66897 36610 ft 509 kts 269°
2026-05-09 12:48 50.55414 -29.77928 36612 ft 510 kts 269°
2026-05-09 12:49 50.54403 -29.88897 36609 ft 510 kts 269°
2026-05-09 12:49 50.53373 -30.00000 36610 ft 508 kts 270°
2026-05-09 12:50 50.52660 -30.10909 36606 ft 504 kts 273°
2026-05-09 12:50 50.52070 -30.21856 36605 ft 502 kts 273°
2026-05-09 12:51 50.51470 -30.32772 36611 ft 501 kts 272°
2026-05-09 12:51 50.50841 -30.43651 36614 ft 500 kts 272°
2026-05-09 12:52 50.50192 -30.54523 36614 ft 499 kts 272°
2026-05-09 12:52 50.49533 -30.65371 36596 ft 499 kts 272°
2026-05-09 12:53 50.48865 -30.76195 36613 ft 498 kts 272°
2026-05-09 12:53 50.48187 -30.87027 36619 ft 498 kts 272°
2026-05-09 12:54 50.47501 -30.97840 36614 ft 498 kts 272°
2026-05-09 12:54 50.46804 -31.08666 36618 ft 499 kts 271°
2026-05-09 12:55 50.46097 -31.19478 36610 ft 497 kts 271°
2026-05-09 12:55 50.45381 -31.30262 36608 ft 496 kts 271°
2026-05-09 12:56 50.44657 -31.41020 36617 ft 496 kts 271°
2026-05-09 12:56 50.43924 -31.51765 36616 ft 495 kts 271°
2026-05-09 12:57 50.43187 -31.62433 36613 ft 495 kts 270°
2026-05-09 12:57 50.42435 -31.73156 36607 ft 494 kts 270°
2026-05-09 12:58 50.41698 -31.83540 36621 ft 494 kts 270°
2026-05-09 12:58 50.40928 -31.94235 36618 ft 494 kts 270°
2026-05-09 12:59 50.40149 -32.04936 36611 ft 494 kts 270°
2026-05-09 12:59 50.39361 -32.15614 36598 ft 494 kts 270°
2026-05-09 13:00 50.38561 -32.26307 36587 ft 493 kts 269°
2026-05-09 13:00 50.37754 -32.36964 36609 ft 492 kts 269°
2026-05-09 13:01 50.36938 -32.47610 36616 ft 492 kts 269°
2026-05-09 13:01 50.36112 -32.58254 36611 ft 492 kts 269°
2026-05-09 13:02 50.35278 -32.68877 36607 ft 491 kts 269°
2026-05-09 13:02 50.34435 -32.79482 36610 ft 491 kts 269°
2026-05-09 13:03 50.33583 -32.90073 36614 ft 490 kts 269°
2026-05-09 13:03 50.32724 -33.00645 36608 ft 490 kts 268°
2026-05-09 13:04 50.31854 -33.11217 36608 ft 490 kts 268°
2026-05-09 13:04 50.30975 -33.21778 36599 ft 489 kts 268°
2026-05-09 13:05 50.30088 -33.32320 36605 ft 489 kts 268°
2026-05-09 13:05 50.29200 -33.42756 36610 ft 488 kts 268°
2026-05-09 13:06 50.28297 -33.53259 36606 ft 487 kts 268°
2026-05-09 13:06 50.27385 -33.63743 36574 ft 486 kts 267°
2026-05-09 13:07 50.26466 -33.74197 36598 ft 485 kts 267°
2026-05-09 13:07 50.25541 -33.84616 36597 ft 484 kts 267°
2026-05-09 13:08 50.24607 -33.95023 36587 ft 483 kts 267°
2026-05-09 13:08 50.23665 -34.05419 36595 ft 483 kts 267°
2026-05-09 13:09 50.22713 -34.15817 36574 ft 483 kts 266°
2026-05-09 13:09 50.21754 -34.26187 36587 ft 483 kts 266°
2026-05-09 13:10 50.20784 -34.36562 36591 ft 483 kts 266°
2026-05-09 13:10 50.19805 -34.46942 36591 ft 483 kts 266°
2026-05-09 13:11 50.18817 -34.57315 36579 ft 483 kts 266°
2026-05-09 13:11 50.17820 -34.67671 36587 ft 483 kts 265°
2026-05-09 13:12 50.16815 -34.78014 36584 ft 482 kts 265°
2026-05-09 13:12 50.15800 -34.88354 36580 ft 482 kts 265°
2026-05-09 13:13 50.14778 -34.98681 36573 ft 482 kts 265°
2026-05-09 13:13 50.13745 -35.09014 36565 ft 482 kts 265°
2026-05-09 13:14 50.12705 -35.19328 36573 ft 481 kts 265°
2026-05-09 13:16 50.08463 -35.60433 36553 ft 481 kts 264°
2026-05-09 13:16 50.07383 -35.70665 36556 ft 480 kts 264°
2026-05-09 13:17 50.06291 -35.80919 36559 ft 480 kts 264°
2026-05-09 13:17 50.05191 -35.91170 36557 ft 480 kts 264°
2026-05-09 13:18 50.04084 -36.01387 36560 ft 479 kts 264°
2026-05-09 13:18 50.02968 -36.11615 36549 ft 479 kts 263°
2026-05-09 13:19 50.01844 -36.21815 36552 ft 478 kts 263°
2026-05-09 13:19 50.00712 -36.32001 36549 ft 478 kts 263°
2026-05-09 13:20 49.99572 -36.42177 36546 ft 478 kts 263°
2026-05-09 13:20 49.98617 -36.50636 36547 ft 478 kts 263°
2026-05-09 13:21 49.97462 -36.60796 36541 ft 477 kts 263°
2026-05-09 13:21 49.96299 -36.70942 36539 ft 476 kts 263°
2026-05-09 13:22 49.95128 -36.81068 36538 ft 476 kts 262°
2026-05-09 13:22 49.93952 -36.91166 36536 ft 476 kts 262°
2026-05-09 13:23 49.90973 -37.16386 36526 ft 474 kts 262°
2026-05-09 13:24 49.89769 -37.26437 36521 ft 474 kts 262°
2026-05-09 13:24 49.88559 -37.36467 36519 ft 473 kts 262°
2026-05-09 13:25 49.87341 -37.46489 36521 ft 473 kts 262°
2026-05-09 13:26 49.85499 -37.61493 36514 ft 472 kts 262°
2026-05-09 13:26 49.84264 -37.71469 36511 ft 471 kts 261°
2026-05-09 13:27 49.83018 -37.81445 36508 ft 471 kts 261°
2026-05-09 13:27 49.81768 -37.91379 36511 ft 469 kts 261°
2026-05-09 13:28 49.80511 -38.01294 36504 ft 468 kts 261°
2026-05-09 13:28 49.79252 -38.11158 36497 ft 466 kts 261°
2026-05-09 13:29 49.77994 -38.20963 36503 ft 464 kts 261°
2026-05-09 13:29 49.76791 -38.30275 36482 ft 463 kts 261°
2026-05-09 13:30 49.75531 -38.39971 36480 ft 463 kts 260°
2026-05-09 13:30 49.74247 -38.49750 36480 ft 463 kts 261°
2026-05-09 13:31 49.72960 -38.59491 36478 ft 463 kts 259°
2026-05-09 13:31 49.71663 -38.69230 36473 ft 462 kts 260°
2026-05-09 13:32 49.70363 -38.78935 36473 ft 461 kts 260°
2026-05-09 13:32 49.68403 -38.93468 36476 ft 461 kts 260°
2026-05-09 13:33 49.67085 -39.03141 36464 ft 458 kts 258°
2026-05-09 13:33 49.65775 -39.12693 36454 ft 453 kts 258°
2026-05-09 13:34 49.64465 -39.22196 36465 ft 453 kts 258°
2026-05-09 13:34 49.63135 -39.31779 36461 ft 459 kts 258°
2026-05-09 13:35 49.61788 -39.41419 36442 ft 459 kts 258°
2026-05-09 13:35 49.60440 -39.51000 36436 ft 454 kts 258°
2026-05-09 13:36 49.59109 -39.60409 36434 ft 452 kts 258°
2026-05-09 13:36 49.57756 -39.69913 36423 ft 456 kts 258°
2026-05-09 13:37 49.56381 -39.79502 36426 ft 459 kts 258°
2026-05-09 13:37 49.55000 -39.89093 36415 ft 459 kts 257°
2026-05-09 13:38 49.53659 -39.98660 36408 ft 456 kts 261°
2026-05-09 13:38 49.53192 -40.08356 36418 ft 454 kts 268°
2026-05-09 13:39 49.53157 -40.18074 36400 ft 456 kts 269°
2026-05-09 13:39 49.53034 -40.27868 36386 ft 454 kts 261°
2026-05-09 13:40 49.51390 -40.37216 36385 ft 455 kts 252°
2026-05-09 13:40 49.49978 -40.46738 36386 ft 458 kts 261°
2026-05-09 13:41 49.49420 -40.56530 36381 ft 460 kts 265°
2026-05-09 13:41 49.49276 -40.66278 36379 ft 458 kts 268°
2026-05-09 13:42 49.49206 -40.76129 36368 ft 457 kts 267°
2026-05-09 13:42 49.49109 -40.85830 36372 ft 456 kts 267°
2026-05-09 13:43 49.48975 -40.95649 36363 ft 457 kts 265°
2026-05-09 13:43 49.48828 -41.05374 36354 ft 458 kts 266°
2026-05-09 13:44 49.48669 -41.15186 36362 ft 460 kts 265°
2026-05-09 13:44 49.48500 -41.25018 36340 ft 461 kts 266°
2026-05-09 13:45 49.48325 -41.34879 36340 ft 461 kts 265°
2026-05-09 13:45 49.48142 -41.44734 36331 ft 461 kts 266°
2026-05-09 13:46 49.47953 -41.54572 36343 ft 460 kts 264°
2026-05-09 13:46 49.47754 -41.64386 36326 ft 458 kts 265°
2026-05-09 13:47 49.47548 -41.74155 36320 ft 457 kts 264°
2026-05-09 13:47 49.47333 -41.83904 36305 ft 456 kts 265°
2026-05-09 13:48 49.47112 -41.93624 36302 ft 456 kts 264°
2026-05-09 13:48 49.46879 -42.03380 36298 ft 457 kts 265°
2026-05-09 13:49 49.46640 -42.13157 36303 ft 457 kts 264°
2026-05-09 13:49 49.46392 -42.22939 36309 ft 458 kts 264°
2026-05-09 13:50 49.46136 -42.32699 36294 ft 456 kts 263°
2026-05-09 13:50 49.45873 -42.42429 36258 ft 455 kts 264°
2026-05-09 13:51 49.45603 -42.52127 36267 ft 453 kts 263°
2026-05-09 13:51 49.45325 -42.61803 36255 ft 453 kts 263°
2026-05-09 13:52 49.45038 -42.71465 36264 ft 453 kts 263°
2026-05-09 13:52 49.44744 -42.81140 36246 ft 453 kts 263°
2026-05-09 13:53 49.44444 -42.90761 36238 ft 454 kts 263°
2026-05-09 13:53 49.44133 -43.00442 36236 ft 454 kts 263°
2026-05-09 13:54 49.43826 -43.09751 36222 ft 454 kts 263°
2026-05-09 13:54 49.43500 -43.19441 36221 ft 455 kts 263°
2026-05-09 13:55 49.43165 -43.29139 36216 ft 455 kts 262°
2026-05-09 13:55 49.42822 -43.38827 36209 ft 455 kts 262°
2026-05-09 13:56 49.42470 -43.48533 36194 ft 456 kts 262°
2026-05-09 13:56 49.42109 -43.58261 36184 ft 456 kts 262°
2026-05-09 13:57 49.41742 -43.67951 36189 ft 456 kts 261°
2026-05-09 13:57 49.41367 -43.77623 36169 ft 457 kts 261°
2026-05-09 13:58 49.40979 -43.87419 36181 ft 457 kts 261°
2026-05-09 13:58 49.40588 -43.97086 36164 ft 457 kts 261°
2026-05-09 13:59 49.40186 -44.06812 36151 ft 457 kts 261°
2026-05-09 13:59 49.39778 -44.16496 36148 ft 456 kts 261°
2026-05-09 14:00 49.39499 -44.23007 36140 ft 456 kts 261°
2026-05-09 14:00 49.38935 -44.35919 36160 ft 456 kts 260°
2026-05-09 14:01 49.38504 -44.45581 36135 ft 455 kts 260°
2026-05-09 14:01 49.38065 -44.55246 36163 ft 453 kts 259°
2026-05-09 14:02 49.37620 -44.64898 36120 ft 450 kts 259°
2026-05-09 14:02 49.37170 -44.74406 36119 ft 448 kts 259°
2026-05-09 14:03 49.36711 -44.83936 36126 ft 449 kts 259°
2026-05-09 14:03 49.36242 -44.93503 36092 ft 450 kts 259°
2026-05-09 14:04 49.35767 -45.03056 36115 ft 449 kts 259°
2026-05-09 14:04 49.35283 -45.12625 36103 ft 450 kts 259°
2026-05-09 14:05 49.34794 -45.22148 36086 ft 451 kts 259°
2026-05-09 14:05 49.34292 -45.31794 36116 ft 451 kts 259°
2026-05-09 14:06 49.33780 -45.41432 36066 ft 454 kts 259°
2026-05-09 14:06 49.33266 -45.50976 36072 ft 452 kts 259°
2026-05-09 14:07 49.32743 -45.60557 36078 ft 450 kts 259°
2026-05-09 14:07 49.32214 -45.70094 36069 ft 448 kts 258°
2026-05-09 14:08 49.31770 -45.77986 36065 ft 447 kts 258°
2026-05-09 14:08 49.31229 -45.87456 36058 ft 445 kts 258°
2026-05-09 14:09 49.30683 -45.96878 36056 ft 444 kts 258°
2026-05-09 14:09 49.30129 -46.06309 36040 ft 443 kts 258°
2026-05-09 14:10 49.29285 -46.20404 36048 ft 443 kts 257°
2026-05-09 14:11 49.28713 -46.29814 36022 ft 443 kts 257°
2026-05-09 14:11 49.28135 -46.39203 36023 ft 443 kts 257°
2026-05-09 14:12 49.27548 -46.48603 36023 ft 443 kts 257°
2026-05-09 14:12 49.26954 -46.57995 36006 ft 442 kts 257°
2026-05-09 14:13 49.26356 -46.67343 36003 ft 441 kts 256°
2026-05-09 14:15 49.23905 -47.04401 36002 ft 436 kts 256°
2026-05-09 14:15 49.23273 -47.13655 35999 ft 438 kts 255°
2026-05-09 14:16 49.22634 -47.22911 35971 ft 438 kts 255°
2026-05-09 14:16 49.21987 -47.32180 35974 ft 438 kts 254°
2026-05-09 14:17 49.21334 -47.41431 35943 ft 437 kts 254°
2026-05-09 14:17 49.20675 -47.50666 35950 ft 437 kts 254°
2026-05-09 14:18 49.20007 -47.59901 35948 ft 437 kts 254°
2026-05-09 14:18 49.19333 -47.69120 35937 ft 437 kts 254°
2026-05-09 14:19 49.18650 -47.78367 35934 ft 437 kts 254°
2026-05-09 14:19 49.17958 -47.87612 35953 ft 438 kts 253°
2026-05-09 14:20 49.17259 -47.96864 35926 ft 438 kts 252°
2026-05-09 14:20 49.16555 -48.06102 35914 ft 438 kts 252°
2026-05-09 14:21 49.15485 -48.19946 35915 ft 437 kts 252°
2026-05-09 14:21 49.14762 -48.29161 35907 ft 437 kts 252°
2026-05-09 14:22 49.14032 -48.38371 35933 ft 436 kts 252°
2026-05-09 14:22 49.13295 -48.47578 35912 ft 437 kts 252°
2026-05-09 14:23 49.12547 -48.56803 35912 ft 439 kts 251°
2026-05-09 14:23 49.11791 -48.66068 35903 ft 439 kts 251°
2026-05-09 14:24 49.11034 -48.75255 35897 ft 439 kts 251°
2026-05-09 14:24 49.10264 -48.84503 35891 ft 439 kts 251°
2026-05-09 14:25 49.09487 -48.93747 35891 ft 439 kts 251°
2026-05-09 14:25 49.08702 -49.02979 35889 ft 439 kts 251°
2026-05-09 14:26 49.07913 -49.12183 35885 ft 438 kts 251°
2026-05-09 14:26 49.07114 -49.21413 35935 ft 438 kts 251°
2026-05-09 14:27 49.06308 -49.30621 35894 ft 438 kts 250°
2026-05-09 14:27 49.05495 -49.39829 35882 ft 438 kts 250°
2026-05-09 14:28 49.04678 -49.49017 35884 ft 437 kts 250°
2026-05-09 14:28 49.03854 -49.58182 35887 ft 436 kts 250°
2026-05-09 14:29 49.03024 -49.67330 35885 ft 435 kts 250°
2026-05-09 14:29 49.02188 -49.76464 35882 ft 435 kts 250°
2026-05-09 14:30 49.01348 -49.85569 35889 ft 434 kts 250°
2026-05-09 14:30 49.00504 -49.94623 35903 ft 435 kts 250°
2026-05-09 14:31 48.99215 -50.03469 35891 ft 419 kts 240°
2026-05-09 14:31 48.97207 -50.11735 35890 ft 418 kts 238°
2026-05-09 14:32 48.95189 -50.20025 35898 ft 418 kts 238°
2026-05-09 14:32 48.93179 -50.28318 35898 ft 419 kts 238°
2026-05-09 14:33 48.91160 -50.36646 35896 ft 419 kts 238°
2026-05-09 14:33 48.89142 -50.44940 35901 ft 419 kts 238°
2026-05-09 14:34 48.87114 -50.53244 35900 ft 419 kts 238°
2026-05-09 14:34 48.85083 -50.61529 35904 ft 419 kts 238°
2026-05-09 14:35 48.83045 -50.69808 35905 ft 419 kts 238°
2026-05-09 14:35 48.81001 -50.78081 35928 ft 418 kts 238°
2026-05-09 14:36 48.78945 -50.86368 35915 ft 420 kts 238°
2026-05-09 14:36 48.76882 -50.94658 35929 ft 422 kts 238°
2026-05-09 14:37 48.74803 -51.02978 35921 ft 422 kts 238°
2026-05-09 14:37 48.72734 -51.11232 35919 ft 422 kts 238°
2026-05-09 14:38 48.70649 -51.19523 35918 ft 421 kts 237°
2026-05-09 14:38 48.68561 -51.27791 35923 ft 421 kts 237°
2026-05-09 14:39 48.66449 -51.36120 35946 ft 421 kts 237°
2026-05-09 14:39 48.64365 -51.44312 35935 ft 420 kts 237°
2026-05-09 14:40 48.62265 -51.52543 35933 ft 419 kts 237°
2026-05-09 14:40 48.60158 -51.60764 35936 ft 419 kts 237°
2026-05-09 14:41 48.58049 -51.68962 35937 ft 419 kts 237°
2026-05-09 14:41 48.55934 -51.77153 36011 ft 420 kts 237°
2026-05-09 14:42 48.53802 -51.85386 35947 ft 421 kts 237°
2026-05-09 14:42 48.51667 -51.93607 35940 ft 421 kts 237°
2026-05-09 14:43 48.49604 -52.01892 35940 ft 427 kts 241°
2026-05-09 14:43 48.47966 -52.10520 35941 ft 428 kts 242°
2026-05-09 14:44 48.46331 -52.19155 35946 ft 428 kts 242°
2026-05-09 14:44 48.44681 -52.27775 35945 ft 429 kts 243°
2026-05-09 14:45 48.43016 -52.36401 35947 ft 429 kts 243°
2026-05-09 14:45 48.41345 -52.45014 35941 ft 429 kts 243°
2026-05-09 14:46 48.39717 -52.53369 35941 ft 429 kts 243°
2026-05-09 14:46 48.38043 -52.61922 35943 ft 429 kts 243°
2026-05-09 14:47 48.36352 -52.70523 35949 ft 430 kts 243°
2026-05-09 14:47 48.34712 -52.78826 35940 ft 430 kts 243°
2026-05-09 14:48 48.33005 -52.87436 35932 ft 430 kts 243°
2026-05-09 14:48 48.31287 -52.96058 35931 ft 430 kts 243°
2026-05-09 14:49 48.29567 -53.04660 35926 ft 430 kts 243°
2026-05-09 14:49 48.27837 -53.13268 35953 ft 430 kts 243°
2026-05-09 14:50 48.26101 -53.21867 35937 ft 431 kts 243°
2026-05-09 14:50 48.24357 -53.30470 35963 ft 431 kts 244°
2026-05-09 14:51 48.22602 -53.39081 35929 ft 432 kts 244°
2026-05-09 14:51 48.20836 -53.47719 35917 ft 433 kts 244°
2026-05-09 14:52 48.19067 -53.56335 35914 ft 433 kts 244°
2026-05-09 14:52 48.17289 -53.64958 35915 ft 434 kts 244°
2026-05-09 14:53 48.15499 -53.73592 35911 ft 434 kts 244°
2026-05-09 14:53 48.13709 -53.82205 35911 ft 434 kts 244°
2026-05-09 14:54 48.11908 -53.90822 35911 ft 434 kts 244°
2026-05-09 14:54 48.10406 -53.97982 35913 ft 433 kts 244°
2026-05-09 14:55 48.08301 -54.07977 35927 ft 433 kts 244°
2026-05-09 14:55 48.06476 -54.16591 35885 ft 436 kts 245°
2026-05-09 14:56 48.04941 -54.23817 35908 ft 435 kts 245°
2026-05-09 14:56 48.03101 -54.32445 35911 ft 435 kts 245°
2026-05-09 14:57 48.01258 -54.41052 35925 ft 435 kts 245°
2026-05-09 14:57 47.99419 -54.49605 35921 ft 435 kts 245°
2026-05-09 14:58 47.97548 -54.58263 35927 ft 436 kts 245°
2026-05-09 14:58 47.95691 -54.66826 35943 ft 436 kts 245°
2026-05-09 14:59 47.93815 -54.75439 35929 ft 437 kts 245°
2026-05-09 14:59 47.91934 -54.84044 35970 ft 437 kts 245°
2026-05-09 15:00 47.90036 -54.92689 35942 ft 439 kts 245°
2026-05-09 15:00 47.88134 -55.01306 35931 ft 441 kts 245°
2026-05-09 15:01 47.85246 -55.14334 35905 ft 442 kts 245°
2026-05-09 15:02 47.83310 -55.23023 35898 ft 442 kts 245°
2026-05-09 15:02 47.81373 -55.31683 35898 ft 442 kts 245°
2026-05-09 15:03 47.79424 -55.40365 35891 ft 442 kts 245°
2026-05-09 15:03 47.77471 -55.49022 35869 ft 442 kts 245°
2026-05-09 15:04 47.75509 -55.57686 35874 ft 441 kts 245°
2026-05-09 15:06 47.67592 -55.92280 35883 ft 444 kts 246°
2026-05-09 15:06 47.65591 -56.00940 35884 ft 444 kts 246°
2026-05-09 15:07 47.63584 -56.09592 35887 ft 443 kts 246°
2026-05-09 15:07 47.61573 -56.18221 35894 ft 443 kts 246°
2026-05-09 15:08 47.59554 -56.26856 35902 ft 443 kts 246°
2026-05-09 15:08 47.56517 -56.39774 35923 ft 444 kts 246°
2026-05-09 15:10 47.48334 -56.74209 35979 ft 443 kts 246°
2026-05-09 15:11 47.46277 -56.82778 35973 ft 444 kts 246°
2026-05-09 15:11 47.44219 -56.91320 36003 ft 444 kts 246°
2026-05-09 15:12 47.42142 -56.99912 36003 ft 444 kts 246°
2026-05-09 15:12 47.40058 -57.08494 36030 ft 445 kts 246°
2026-05-09 15:13 47.37963 -57.17086 36024 ft 445 kts 246°
2026-05-09 15:13 47.35860 -57.25685 36030 ft 446 kts 247°
2026-05-09 15:14 47.33745 -57.34296 36023 ft 446 kts 247°
2026-05-09 15:14 47.31627 -57.42887 36032 ft 446 kts 247°
2026-05-09 15:15 47.29500 -57.51482 36029 ft 446 kts 246°
2026-05-09 15:15 47.27369 -57.60060 36030 ft 446 kts 246°
2026-05-09 15:16 47.25234 -57.68621 36031 ft 445 kts 247°
2026-05-09 15:16 47.23094 -57.77169 36057 ft 445 kts 247°
2026-05-09 15:17 47.20963 -57.85654 36042 ft 445 kts 247°
2026-05-09 15:17 47.18813 -57.94175 36040 ft 445 kts 247°
2026-05-09 15:18 47.16657 -58.02692 36044 ft 444 kts 247°
2026-05-09 15:18 47.14496 -58.11193 36052 ft 444 kts 247°
2026-05-09 15:19 47.12332 -58.19680 36052 ft 444 kts 247°
2026-05-09 15:19 47.10162 -58.28158 36057 ft 443 kts 247°
2026-05-09 15:20 47.06897 -58.40852 36065 ft 443 kts 247°
2026-05-09 15:21 47.04711 -58.49312 36084 ft 443 kts 247°
2026-05-09 15:21 47.02518 -58.57768 36072 ft 444 kts 247°
2026-05-09 15:22 47.00317 -58.66226 36074 ft 444 kts 247°
2026-05-09 15:22 46.98108 -58.74682 36078 ft 444 kts 247°
2026-05-09 15:23 46.95893 -58.83129 36077 ft 444 kts 247°
2026-05-09 15:23 46.93675 -58.91558 36063 ft 444 kts 247°
2026-05-09 15:24 46.91449 -58.99987 36070 ft 444 kts 247°
2026-05-09 15:24 46.89219 -59.08402 36075 ft 443 kts 247°
2026-05-09 15:25 46.87108 -59.16340 36075 ft 443 kts 247°
2026-05-09 15:25 46.84872 -59.24719 36067 ft 443 kts 247°
2026-05-09 15:26 46.81500 -59.37298 36072 ft 443 kts 247°
2026-05-09 15:26 46.79248 -59.45660 36079 ft 443 kts 247°
2026-05-09 15:27 46.76988 -59.54025 36067 ft 443 kts 247°
2026-05-09 15:27 46.74736 -59.62328 36061 ft 443 kts 247°
2026-05-09 15:28 46.72448 -59.70734 36058 ft 443 kts 247°
2026-05-09 15:28 46.70184 -59.79026 36067 ft 443 kts 247°
2026-05-09 15:29 46.67910 -59.87324 36055 ft 442 kts 247°
2026-05-09 15:29 46.65623 -59.95640 36052 ft 442 kts 247°
2026-05-09 15:30 46.63335 -60.03931 36055 ft 441 kts 247°
2026-05-09 15:30 46.61042 -60.12213 36047 ft 441 kts 247°
2026-05-09 15:31 46.58741 -60.20491 36047 ft 441 kts 247°
2026-05-09 15:31 46.56443 -60.28735 36038 ft 440 kts 247°
2026-05-09 15:32 46.54138 -60.36974 36029 ft 440 kts 247°
2026-05-09 15:32 46.51826 -60.45207 36032 ft 440 kts 247°
2026-05-09 15:33 46.49514 -60.53417 36032 ft 440 kts 247°
2026-05-09 15:33 46.47205 -60.61583 36016 ft 440 kts 247°
2026-05-09 15:34 46.44874 -60.69802 36018 ft 441 kts 247°
2026-05-09 15:34 46.42538 -60.78012 36020 ft 441 kts 247°
2026-05-09 15:35 46.40194 -60.86222 36034 ft 441 kts 247°
2026-05-09 15:35 46.37841 -60.94437 36036 ft 441 kts 247°
2026-05-09 15:36 46.35485 -61.02632 36036 ft 441 kts 247°
2026-05-09 15:36 46.33124 -61.10818 36043 ft 441 kts 247°
2026-05-09 15:37 46.30758 -61.18993 36046 ft 440 kts 247°
2026-05-09 15:37 46.28388 -61.27159 36062 ft 440 kts 247°
2026-05-09 15:38 46.26016 -61.35299 36044 ft 439 kts 247°
2026-05-09 15:38 46.23643 -61.43420 36055 ft 438 kts 247°
2026-05-09 15:39 46.21267 -61.51523 36069 ft 437 kts 247°
2026-05-09 15:39 46.18890 -61.59604 36071 ft 437 kts 247°
2026-05-09 15:40 46.16521 -61.67632 36075 ft 437 kts 247°
2026-05-09 15:40 46.14137 -61.75683 36079 ft 437 kts 247°
2026-05-09 15:41 46.11747 -61.83729 36074 ft 436 kts 247°
2026-05-09 15:41 46.09337 -61.91815 36088 ft 436 kts 247°
2026-05-09 15:42 46.06955 -61.99783 36067 ft 436 kts 247°
2026-05-09 15:42 46.04945 -62.06488 36067 ft 436 kts 247°
2026-05-09 15:43 46.02148 -62.15785 36082 ft 436 kts 247°
2026-05-09 15:43 46.00124 -62.22491 36070 ft 435 kts 247°
2026-05-09 15:44 45.97723 -62.30424 36067 ft 436 kts 247°
2026-05-09 15:44 45.95302 -62.38400 36066 ft 435 kts 247°
2026-05-09 15:45 45.92874 -62.46370 36062 ft 436 kts 247°
2026-05-09 15:45 45.90439 -62.54339 36057 ft 436 kts 247°
2026-05-09 15:46 45.88001 -62.62295 36057 ft 435 kts 247°
2026-05-09 15:46 45.85558 -62.70240 36056 ft 435 kts 247°
2026-05-09 15:47 45.83108 -62.78185 36057 ft 435 kts 247°
2026-05-09 15:47 45.80653 -62.86119 36057 ft 435 kts 246°
2026-05-09 15:48 45.78196 -62.94036 36060 ft 435 kts 246°
2026-05-09 15:48 45.75732 -63.01952 36054 ft 435 kts 247°
2026-05-09 15:49 45.73265 -63.09850 36061 ft 434 kts 246°
2026-05-09 15:49 45.70798 -63.17727 36061 ft 434 kts 246°
2026-05-09 15:50 45.68322 -63.25609 36065 ft 434 kts 246°
2026-05-09 15:50 45.65856 -63.33432 36057 ft 434 kts 246°
2026-05-09 15:51 45.63371 -63.41292 36054 ft 434 kts 246°
2026-05-09 15:51 45.60881 -63.49143 36055 ft 434 kts 246°
2026-05-09 15:52 45.57138 -63.60903 36053 ft 434 kts 246°
2026-05-09 15:53 45.54638 -63.68728 36056 ft 434 kts 246°
2026-05-09 15:53 45.52130 -63.76554 36045 ft 433 kts 246°
2026-05-09 15:54 45.49619 -63.84365 36065 ft 433 kts 246°
2026-05-09 15:54 45.47107 -63.92157 36056 ft 433 kts 246°
2026-05-09 15:55 45.44586 -63.99950 36054 ft 432 kts 246°
2026-05-09 15:55 45.42066 -64.07720 36060 ft 432 kts 246°
2026-05-09 15:56 45.39542 -64.15478 36057 ft 432 kts 246°
2026-05-09 15:56 45.37018 -64.23214 36059 ft 431 kts 246°
2026-05-09 15:57 45.34490 -64.30939 36058 ft 430 kts 246°
2026-05-09 15:57 45.31958 -64.38653 36063 ft 430 kts 246°
2026-05-09 15:58 45.29425 -64.46348 36061 ft 431 kts 246°
2026-05-09 15:58 45.26884 -64.54044 36076 ft 430 kts 246°
2026-05-09 15:59 45.24363 -64.61658 36072 ft 429 kts 246°
2026-05-09 15:59 45.21822 -64.69311 36073 ft 428 kts 246°
2026-05-09 16:00 45.19279 -64.76944 36078 ft 428 kts 246°
2026-05-09 16:00 45.16737 -64.84556 36084 ft 427 kts 246°
2026-05-09 16:01 45.14189 -64.92161 36078 ft 426 kts 246°
2026-05-09 16:01 45.11642 -64.99744 36079 ft 426 kts 246°
2026-05-09 16:02 45.09093 -65.07310 36074 ft 426 kts 246°
2026-05-09 16:02 45.05256 -65.18658 36080 ft 426 kts 246°
2026-05-09 16:03 45.02693 -65.26211 36082 ft 425 kts 246°
2026-05-09 16:03 45.00128 -65.33750 36083 ft 425 kts 246°
2026-05-09 16:04 44.97567 -65.41257 36084 ft 424 kts 246°
2026-05-09 16:04 44.94999 -65.48761 36089 ft 424 kts 246°
2026-05-09 16:05 44.92428 -65.56251 36095 ft 424 kts 246°
2026-05-09 16:05 44.89852 -65.63739 36088 ft 423 kts 246°
2026-05-09 16:06 44.87277 -65.71199 36112 ft 423 kts 246°
2026-05-09 16:06 44.84700 -65.78647 36100 ft 423 kts 246°
2026-05-09 16:07 44.82121 -65.86079 36098 ft 422 kts 246°
2026-05-09 16:07 44.79537 -65.93507 36098 ft 422 kts 246°
2026-05-09 16:08 44.76953 -66.00911 36091 ft 421 kts 246°
2026-05-09 16:08 44.74373 -66.08287 36094 ft 419 kts 246°
2026-05-09 16:09 44.71796 -66.15632 36095 ft 418 kts 246°
2026-05-09 16:09 44.69217 -66.22965 36095 ft 418 kts 246°
2026-05-09 16:10 44.66639 -66.30275 36095 ft 418 kts 246°
2026-05-09 16:10 44.64056 -66.37578 36097 ft 417 kts 246°
2026-05-09 16:11 44.61486 -66.44824 36094 ft 417 kts 246°
2026-05-09 16:11 44.58899 -66.52102 36095 ft 416 kts 246°
2026-05-09 16:12 44.56310 -66.59363 36098 ft 416 kts 246°
2026-05-09 16:12 44.53717 -66.66619 36098 ft 416 kts 246°
2026-05-09 16:13 44.51128 -66.73841 36094 ft 414 kts 247°
2026-05-09 16:13 44.48545 -66.81028 36096 ft 412 kts 247°
2026-05-09 16:14 44.45971 -66.88179 36113 ft 410 kts 247°
2026-05-09 16:14 44.43400 -66.95300 36105 ft 409 kts 247°
2026-05-09 16:15 44.41019 -67.02505 36106 ft 406 kts 253°
2026-05-09 16:15 44.39154 -67.09937 36110 ft 405 kts 253°
2026-05-09 16:16 44.37264 -67.17362 36103 ft 406 kts 253°
2026-05-09 16:16 44.35459 -67.24409 36103 ft 407 kts 253°
2026-05-09 16:17 44.33517 -67.31966 36110 ft 419 kts 253°
2026-05-09 16:17 44.31534 -67.39651 36091 ft 420 kts 253°
2026-05-09 16:18 44.29555 -67.47288 36086 ft 417 kts 253°
2026-05-09 16:18 44.27607 -67.54779 36094 ft 412 kts 253°
2026-05-09 16:19 44.25658 -67.62262 36097 ft 409 kts 253°
2026-05-09 16:19 44.23714 -67.69704 36097 ft 407 kts 253°
2026-05-09 16:20 44.21772 -67.77114 36100 ft 407 kts 253°
2026-05-09 16:20 44.19820 -67.84540 36101 ft 408 kts 253°
2026-05-09 16:21 44.17860 -67.91970 36075 ft 409 kts 254°
2026-05-09 16:21 44.15890 -67.99414 36096 ft 409 kts 254°
2026-05-09 16:22 44.13916 -68.06850 36095 ft 409 kts 253°
2026-05-09 16:22 44.11939 -68.14273 36094 ft 409 kts 253°
2026-05-09 16:23 44.09959 -68.21689 36090 ft 408 kts 253°
2026-05-09 16:23 44.07975 -68.29092 36092 ft 408 kts 253°
2026-05-09 16:24 44.05990 -68.36480 36078 ft 408 kts 254°
2026-05-09 16:24 44.03996 -68.43877 36086 ft 409 kts 254°
2026-05-09 16:25 44.02335 -68.50022 36095 ft 409 kts 253°
2026-05-09 16:25 43.99993 -68.58659 36087 ft 409 kts 253°
2026-05-09 16:26 43.97983 -68.66048 36087 ft 409 kts 253°
2026-05-09 16:26 43.95967 -68.73435 36086 ft 409 kts 253°
2026-05-09 16:27 43.93945 -68.80822 36075 ft 409 kts 253°
2026-05-09 16:27 43.91917 -68.88212 36077 ft 410 kts 253°
2026-05-09 16:28 43.89894 -68.95559 36100 ft 411 kts 253°
2026-05-09 16:28 43.87854 -69.02943 36081 ft 412 kts 253°
2026-05-09 16:29 43.85798 -69.10366 36081 ft 411 kts 253°
2026-05-09 16:29 43.83740 -69.17769 36046 ft 411 kts 252°
2026-05-09 16:30 43.81685 -69.25146 36076 ft 410 kts 252°
2026-05-09 16:30 43.79960 -69.31314 36079 ft 410 kts 252°
2026-05-09 16:31 43.77730 -69.38588 36076 ft 414 kts 246°
2026-05-09 16:31 43.74637 -69.45343 36081 ft 419 kts 239°
2026-05-09 16:32 43.70919 -69.51560 36077 ft 423 kts 235°
2026-05-09 16:32 43.67049 -69.57673 36070 ft 422 kts 235°
2026-05-09 16:33 43.63197 -69.63764 36072 ft 421 kts 235°
2026-05-09 16:33 43.59359 -69.69863 36076 ft 421 kts 235°
2026-05-09 16:34 43.55526 -69.75959 36044 ft 420 kts 235°
2026-05-09 16:34 43.51698 -69.82038 36061 ft 419 kts 235°
2026-05-09 16:35 43.47875 -69.88097 36065 ft 419 kts 235°
2026-05-09 16:35 43.44045 -69.94152 36061 ft 419 kts 235°
2026-05-09 16:36 43.36388 -70.06221 36048 ft 418 kts 234°
2026-05-09 16:37 43.32562 -70.12232 36055 ft 418 kts 234°
2026-05-09 16:37 43.28731 -70.18239 36074 ft 418 kts 234°
2026-05-09 16:38 43.24905 -70.24227 36049 ft 417 kts 234°
2026-05-09 16:38 43.21078 -70.30201 36053 ft 417 kts 234°
2026-05-09 16:39 43.17250 -70.36166 36058 ft 416 kts 234°
2026-05-09 16:39 43.13450 -70.42076 36052 ft 416 kts 234°
2026-05-09 16:40 43.09619 -70.48022 36051 ft 416 kts 234°
2026-05-09 16:42 42.94274 -70.71715 36032 ft 415 kts 234°
2026-05-09 16:42 42.90446 -70.77596 36053 ft 414 kts 234°
2026-05-09 16:43 42.86619 -70.83468 36047 ft 414 kts 234°
2026-05-09 16:43 42.82751 -70.89267 36045 ft 416 kts 229°
2026-05-09 16:44 42.80402 -70.91636 36033 ft 428 kts 217°
2026-05-09 16:44 42.77644 -70.93263 36053 ft 438 kts 208°
2026-05-09 16:44 42.71867 -70.95934 36050 ft 440 kts 208°
2026-05-09 16:45 42.66071 -70.98649 36031 ft 440 kts 208°
2026-05-09 16:45 42.60286 -71.01406 36012 ft 441 kts 208°
2026-05-09 16:46 42.54490 -71.04184 36035 ft 442 kts 208°
2026-05-09 16:46 42.48692 -71.06962 36029 ft 443 kts 208°
2026-05-09 16:47 42.42879 -71.09739 36008 ft 443 kts 208°
2026-05-09 16:47 42.37058 -71.12514 36026 ft 444 kts 208°
2026-05-09 16:48 42.31217 -71.15294 36032 ft 445 kts 208°
2026-05-09 16:48 42.25366 -71.18072 35969 ft 446 kts 208°
2026-05-09 16:49 42.19516 -71.20845 36002 ft 446 kts 208°
2026-05-09 16:50 42.10718 -71.25004 36007 ft 448 kts 208°
2026-05-09 16:50 42.04838 -71.27777 35995 ft 448 kts 207°
2026-05-09 16:51 41.98959 -71.30543 36005 ft 447 kts 207°
2026-05-09 16:51 41.93085 -71.33302 36007 ft 447 kts 207°
2026-05-09 16:52 41.87232 -71.36045 35921 ft 442 kts 207°
2026-05-09 16:52 41.84339 -71.37398 35727 ft 439 kts 207°
2026-05-09 16:52 41.81483 -71.38736 35374 ft 441 kts 207°
2026-05-09 16:52 41.78551 -71.40110 34980 ft 442 kts 207°
2026-05-09 16:53 41.75633 -71.41473 34610 ft 443 kts 206°
2026-05-09 16:53 41.72762 -71.42928 34255 ft 438 kts 212°
2026-05-09 16:53 41.70286 -71.45061 33810 ft 422 kts 226°
2026-05-09 16:53 41.68054 -71.47708 33202 ft 426 kts 226°
2026-05-09 16:54 41.65838 -71.50281 32659 ft 429 kts 226°
2026-05-09 16:54 41.63566 -71.52862 32329 ft 427 kts 225°
2026-05-09 16:54 41.61306 -71.55395 32117 ft 423 kts 225°
2026-05-09 16:54 41.59052 -71.57907 31871 ft 420 kts 225°
2026-05-09 16:55 41.56819 -71.60390 31663 ft 416 kts 225°
2026-05-09 16:55 41.54601 -71.62853 31408 ft 414 kts 225°
2026-05-09 16:55 41.52386 -71.65312 31005 ft 413 kts 224°
2026-05-09 16:55 41.50185 -71.67756 30367 ft 411 kts 224°
2026-05-09 16:56 41.47997 -71.70182 29702 ft 408 kts 224°
2026-05-09 16:56 41.45830 -71.72583 29040 ft 403 kts 224°
2026-05-09 16:56 41.43683 -71.74959 28415 ft 398 kts 224°
2026-05-09 16:56 41.41563 -71.77303 27782 ft 394 kts 224°
2026-05-09 16:57 41.39466 -71.79622 27195 ft 389 kts 224°
2026-05-09 16:57 41.37393 -71.81913 26572 ft 386 kts 224°
2026-05-09 16:57 41.35339 -71.84181 25971 ft 383 kts 224°
2026-05-09 16:57 41.33296 -71.86435 25394 ft 380 kts 224°
2026-05-09 16:58 41.31265 -71.88674 24827 ft 377 kts 224°
2026-05-09 16:58 41.29252 -71.90890 24250 ft 375 kts 224°
2026-05-09 16:58 41.27257 -71.93083 23803 ft 369 kts 224°
2026-05-09 16:58 41.25294 -71.95237 23380 ft 364 kts 224°
2026-05-09 16:59 41.23353 -71.97366 22951 ft 360 kts 224°
2026-05-09 16:59 41.21418 -71.99489 22522 ft 361 kts 224°
2026-05-09 16:59 41.19482 -72.01614 22148 ft 362 kts 223°
2026-05-09 16:59 41.17533 -72.03751 21781 ft 364 kts 224°
2026-05-09 17:00 41.15582 -72.05890 21398 ft 365 kts 224°
2026-05-09 17:00 41.13642 -72.08013 21026 ft 366 kts 223°
2026-05-09 17:00 41.11685 -72.10160 20629 ft 362 kts 225°
2026-05-09 17:00 41.10037 -72.12671 20250 ft 355 kts 239°
2026-05-09 17:01 41.08974 -72.15554 19894 ft 352 kts 251°
2026-05-09 17:01 41.08205 -72.18627 19522 ft 352 kts 252°
2026-05-09 17:01 41.07463 -72.21714 19148 ft 350 kts 252°
2026-05-09 17:01 41.06726 -72.24786 18780 ft 349 kts 252°
2026-05-09 17:02 41.05990 -72.27833 18424 ft 347 kts 252°
2026-05-09 17:02 41.05251 -72.30862 18030 ft 345 kts 252°
2026-05-09 17:02 41.04512 -72.33867 17620 ft 342 kts 251°
2026-05-09 17:02 41.03775 -72.36844 17243 ft 338 kts 251°
2026-05-09 17:03 41.03044 -72.39789 16871 ft 335 kts 251°
2026-05-09 17:04 40.98053 -72.59726 14491 ft 319 kts 250°
2026-05-09 17:05 40.97351 -72.62512 14163 ft 318 kts 250°
2026-05-09 17:05 40.96653 -72.65283 13819 ft 317 kts 250°
2026-05-09 17:05 40.95961 -72.68031 13478 ft 313 kts 250°
2026-05-09 17:05 40.95287 -72.70703 13094 ft 306 kts 249°
2026-05-09 17:06 40.94618 -72.73351 12760 ft 300 kts 249°
2026-05-09 17:06 40.93965 -72.75932 12430 ft 293 kts 249°
2026-05-09 17:06 40.93278 -72.78441 12111 ft 281 kts 241°
2026-05-09 17:06 40.92181 -72.80480 12042 ft 266 kts 227°
2026-05-09 17:07 40.90821 -72.82062 12001 ft 254 kts 219°
2026-05-09 17:07 40.90361 -72.82517 12000 ft 254 kts 218°
2026-05-09 17:07 40.87918 -72.84824 11977 ft 258 kts 217°
2026-05-09 17:07 40.86450 -72.86202 11791 ft 259 kts 217°
2026-05-09 17:08 40.84989 -72.87579 11582 ft 257 kts 217°
2026-05-09 17:08 40.82116 -72.90306 11170 ft 251 kts 217°
2026-05-09 17:08 40.80702 -72.91652 10985 ft 250 kts 217°
2026-05-09 17:09 40.79300 -72.92992 10768 ft 249 kts 217°
2026-05-09 17:09 40.77920 -72.94309 10586 ft 248 kts 217°
2026-05-09 17:09 40.76510 -72.95658 10390 ft 247 kts 216°
2026-05-09 17:09 40.75120 -72.96986 10201 ft 246 kts 216°
2026-05-09 17:10 40.73730 -72.98314 10006 ft 247 kts 216°
2026-05-09 17:10 40.72359 -72.99623 9807 ft 246 kts 216°
2026-05-09 17:10 40.70951 -73.00965 9570 ft 247 kts 216°
2026-05-09 17:10 40.69646 -73.02361 9335 ft 245 kts 229°
2026-05-09 17:11 40.68818 -73.04356 9163 ft 253 kts 248°
2026-05-09 17:11 40.68485 -73.06654 9089 ft 260 kts 262°
2026-05-09 17:11 40.68466 -73.09049 9042 ft 262 kts 265°
2026-05-09 17:11 40.68507 -73.11442 9017 ft 261 kts 266°
2026-05-09 17:12 40.68549 -73.13824 9002 ft 259 kts 265°
2026-05-09 17:12 40.68584 -73.16182 9007 ft 256 kts 265°
2026-05-09 17:12 40.68612 -73.18475 8910 ft 249 kts 265°
2026-05-09 17:12 40.68632 -73.20731 8818 ft 243 kts 264°
2026-05-09 17:13 40.68675 -73.22936 8633 ft 238 kts 271°
2026-05-09 17:13 40.69287 -73.25011 8231 ft 255 kts 299°
2026-05-09 17:13 40.70492 -73.26753 7944 ft 258 kts 307°
2026-05-09 17:13 40.71753 -73.28435 7682 ft 255 kts 307°
2026-05-09 17:14 40.72981 -73.30058 7555 ft 246 kts 307°
2026-05-09 17:14 40.74190 -73.31638 7364 ft 241 kts 307°
2026-05-09 17:14 40.75373 -73.33175 7137 ft 237 kts 307°
2026-05-09 17:14 40.76539 -73.34685 6873 ft 234 kts 307°
2026-05-09 17:15 40.77698 -73.36184 6618 ft 233 kts 307°
2026-05-09 17:15 40.78724 -73.37773 6233 ft 224 kts 292°
2026-05-09 17:15 40.79455 -73.39574 5905 ft 221 kts 288°
2026-05-09 17:15 40.79899 -73.40764 5761 ft 216 kts 287°
2026-05-09 17:16 40.80543 -73.42484 5710 ft 203 kts 287°
2026-05-09 17:17 40.84670 -73.53556 4532 ft 184 kts 278°
2026-05-09 17:18 40.84616 -73.55139 4357 ft 172 kts 242°
2026-05-09 17:18 40.84036 -73.56494 4264 ft 170 kts 237°
2026-05-09 17:18 40.83433 -73.57859 4139 ft 175 kts 237°
2026-05-09 17:18 40.82819 -73.59251 4020 ft 174 kts 237°
2026-05-09 17:19 40.82213 -73.60613 3917 ft 171 kts 237°
2026-05-09 17:19 40.81454 -73.61765 3787 ft 167 kts 218°
2026-05-09 17:19 40.80504 -73.62706 3639 ft 176 kts 218°
2026-05-09 17:19 40.79494 -73.63645 3440 ft 178 kts 215°
2026-05-09 17:20 40.78444 -73.64521 3190 ft 178 kts 213°
2026-05-09 17:20 40.77400 -73.65355 2961 ft 171 kts 212°
2026-05-09 17:20 40.76387 -73.66156 2738 ft 172 kts 212°
2026-05-09 17:20 40.75375 -73.66952 2526 ft 173 kts 212°
2026-05-09 17:21 40.74343 -73.67763 2266 ft 169 kts 213°
2026-05-09 17:21 40.73372 -73.68528 2057 ft 155 kts 212°
2026-05-09 17:21 40.72457 -73.69248 1880 ft 150 kts 212°
2026-05-09 17:21 40.71571 -73.69946 1691 ft 149 kts 214°
2026-05-09 17:22 40.70690 -73.70631 1457 ft 145 kts 212°
2026-05-09 17:22 40.69855 -73.71292 1276 ft 135 kts 211°
2026-05-09 17:22 40.69053 -73.71925 1061 ft 133 kts 211°
2026-05-09 17:22 40.68268 -73.72548 931 ft 130 kts 211°
2026-05-09 17:23 40.67478 -73.73170 734 ft 133 kts 210°
2026-05-09 17:23 40.66677 -73.73791 575 ft 139 kts 210°
2026-05-09 17:23 40.65850 -73.74440 390 ft 137 kts 211°
2026-05-09 17:23 40.65038 -73.75069 170 ft 133 kts 211°
2026-05-09 17:25 40.62933 -73.76884 30 ft 12 kts 247°
2026-05-09 17:25 40.62927 -73.76950 26 ft 4 kts 276°
2026-05-09 17:25 40.62934 -73.76977 26 ft 3 kts 291°
2026-05-09 17:25 40.62944 -73.77000 26 ft 3 kts 300°
2026-05-09 17:26 40.62951 -73.77018 26 ft 4 kts 300°
2026-05-09 17:26 40.62976 -73.77075 28 ft 9 kts 301°
2026-05-09 17:26 40.63007 -73.77144 30 ft 9 kts 301°
2026-05-09 17:26 40.63038 -73.77212 32 ft 9 kts 301°
2026-05-09 17:27 40.63071 -73.77283 32 ft 11 kts 301°
2026-05-09 17:27 40.63112 -73.77375 33 ft 12 kts 301°
2026-05-09 17:27 40.63154 -73.77467 34 ft 12 kts 301°
2026-05-09 17:27 40.63196 -73.77561 34 ft 12 kts 301°
2026-05-09 17:28 40.63238 -73.77653 33 ft 12 kts 300°
2026-05-09 17:28 40.63280 -73.77746 32 ft 12 kts 301°
2026-05-09 17:28 40.63322 -73.77838 32 ft 12 kts 300°
2026-05-09 17:28 40.63355 -73.77908 30 ft 8 kts 315°
2026-05-09 17:29 40.63409 -73.77904 29 ft 8 kts 27°
2026-05-09 17:29 40.63458 -73.77865 29 ft 8 kts 31°
2026-05-09 17:29 40.63507 -73.77827 28 ft 8 kts 31°
2026-05-09 17:29 40.63569 -73.77779 30 ft 12 kts 31°
2026-05-09 17:30 40.63644 -73.77719 26 ft 12 kts 31°
2026-05-09 17:30 40.63711 -73.77667 31 ft 9 kts 31°
2026-05-09 17:30 40.63769 -73.77681 27 ft 9 kts 325°
2026-05-09 17:30 40.63821 -73.77729 28 ft 9 kts 325°
2026-05-09 17:31 40.63875 -73.77778 28 ft 9 kts 325°
2026-05-09 17:31 40.63928 -73.77824 28 ft 9 kts 329°
2026-05-09 17:32 40.64139 -73.77943 28 ft 9 kts 329°
2026-05-09 17:32 40.64172 -73.77967 28 ft 4 kts 330°
2026-05-09 17:32 40.64201 -73.77977 28 ft 4 kts
2026-05-09 17:33 40.64230 -73.77964 28 ft 4 kts 26°
2026-05-09 17:33 40.64243 -73.77955 28 ft 0 kts 28°
2026-05-09 17:33 40.64247 -73.77952 28 ft 0 kts 28°